Latitude: N 50° 09' 49" Longitude: W 05° 11' 53" Elevation: 168m ASL

There are 8 visitors online

Adverts

<- Previous Day | Today | Next Day ->

All Data for 17 July 2018

Time
A - D
Temp
A - D
Dew Point
A - D
Humidity
A - D
Pressure
A - D
Wind
A - D
Wind Dir Gust
A - D
Rain Rate
A - D
Rain Total
00:00 15.0 11.2 78 1017.7 1.6 W 3.1 0.0 0.0
00:01 15.0 11.2 78 1017.7 1.6 W 3.1 0.0 0.0
00:02 15.0 11.2 78 1017.8 1.6 SW 3.1 0.0 0.0
00:03 15.0 11.2 78 1017.8 1.6 SW 3.1 0.0 0.0
00:04 14.9 11.1 78 1017.8 1.6 W 3.1 0.0 0.0
00:05 14.9 11.1 78 1017.7 1.6 W 3.1 0.0 0.0
00:06 14.9 11.1 78 1017.8 0.7 W 3.1 0.0 0.0
00:07 14.9 11.1 78 1017.7 0.7 N 3.1 0.0 0.0
00:08 14.9 11.1 78 1017.7 0.0 W 3.1 0.0 0.0
00:09 14.9 11.1 78 1017.8 0.0 W 1.6 0.0 0.0
00:10 14.9 11.1 78 1017.8 0.7 W 1.6 0.0 0.0
00:12 14.8 11.2 79 1017.8 1.6 W 1.6 0.0 0.0
00:13 14.8 11.0 78 1017.8 0.7 W 1.6 0.0 0.0
00:14 14.8 11.2 79 1017.7 1.6 W 1.6 0.0 0.0
00:15 14.8 11.0 78 1017.7 1.6 W 1.6 0.0 0.0
00:16 14.8 11.0 78 1017.7 2.2 SW 2.2 0.0 0.0
00:17 14.8 11.0 78 1017.8 1.6 SW 2.2 0.0 0.0
00:18 14.8 11.0 78 1017.8 3.1 SW 3.1 0.0 0.0
00:19 14.7 10.9 78 1017.8 2.2 SW 3.1 0.0 0.0
00:20 14.7 10.9 78 1017.8 3.1 W 3.1 0.0 0.0
00:21 14.7 11.1 79 1017.6 2.2 SW 3.1 0.0 0.0
00:22 14.7 11.1 79 1017.8 2.2 SW 3.1 0.0 0.0
00:23 14.7 11.1 79 1017.6 1.6 W 3.1 0.0 0.0
00:24 14.6 10.8 78 1017.8 3.1 SSW 3.1 0.0 0.0
00:25 14.6 11.0 79 1017.7 2.2 S 3.1 0.0 0.0
00:26 14.6 10.8 78 1017.9 1.6 S 3.1 0.0 0.0
00:27 14.5 10.7 78 1017.8 2.2 SW 3.1 0.0 0.0
00:28 14.5 10.9 79 1017.7 3.1 SW 3.1 0.0 0.0
00:29 14.4 10.8 79 1017.7 3.8 NW 3.8 0.0 0.0
00:31 14.4 10.8 79 1017.8 3.1 WSW 3.8 0.0 0.0
00:32 14.4 10.8 79 1017.8 2.2 W 3.8 0.0 0.0
00:33 14.4 10.8 79 1017.8 2.2 SW 3.8 0.0 0.0
00:34 14.3 10.7 79 1017.8 2.2 SW 3.8 0.0 0.0
00:35 14.3 10.7 79 1017.7 4.5 SW 4.5 0.0 0.0
00:36 14.3 10.7 79 1017.8 3.8 W 4.5 0.0 0.0
00:37 14.3 10.7 79 1017.8 3.8 SW 4.5 0.0 0.0
00:38 14.3 10.7 79 1017.7 4.5 SW 4.5 0.0 0.0
00:39 14.3 10.7 79 1017.8 3.1 SW 4.5 0.0 0.0
00:40 14.3 10.9 80 1017.8 2.2 WSW 4.5 0.0 0.0
00:41 14.3 10.9 80 1017.8 2.2 W 4.5 0.0 0.0
00:42 14.3 10.9 80 1017.8 2.2 SW 4.5 0.0 0.0
00:43 14.3 10.9 80 1017.8 2.2 S 4.5 0.0 0.0
00:44 14.2 10.8 80 1017.7 3.8 S 4.5 0.0 0.0
00:45 14.3 10.9 80 1017.8 3.8 SW 4.5 0.0 0.0
00:46 14.3 10.9 80 1017.8 3.1 SW 4.5 0.0 0.0
00:47 14.3 10.9 80 1017.6 2.2 W 4.5 0.0 0.0
00:48 14.3 10.9 80 1017.8 3.8 WSW 3.8 0.0 0.0
00:50 14.3 10.9 80 1017.7 3.1 SW 3.8 0.0 0.0
00:51 14.3 10.9 80 1017.6 1.6 W 3.8 0.0 0.0
00:52 14.3 11.1 81 1017.6 1.6 W 3.8 0.0 0.0
00:53 14.2 11.0 81 1017.6 2.2 W 3.8 0.0 0.0
00:54 14.3 11.1 81 1017.7 3.1 SW 3.8 0.0 0.0
00:55 14.3 11.1 81 1017.8 3.1 W 3.8 0.0 0.0
00:56 14.3 11.1 81 1017.8 3.1 SW 3.8 0.0 0.0
00:57 14.3 11.1 81 1017.6 3.1 SW 3.8 0.0 0.0
00:58 14.3 11.1 81 1017.8 3.1 SW 3.8 0.0 0.0
00:59 14.3 11.1 81 1017.8 3.1 W 3.1 0.0 0.0
01:00 14.3 11.1 81 1017.8 3.1 W 3.1 0.0 0.0
01:01 14.3 11.1 81 1017.7 3.1 W 3.1 0.0 0.0
01:02 14.3 11.1 81 1017.8 3.1 W 3.1 0.0 0.0
01:03 14.3 11.1 81 1017.7 3.1 W 3.1 0.0 0.0
01:04 14.3 11.1 81 1017.8 3.1 W 3.1 0.0 0.0
01:05 14.3 11.1 81 1017.6 3.1 W 3.1 0.0 0.0
01:06 14.3 11.1 81 1017.7 3.1 W 3.1 0.0 0.0
01:07 14.3 11.3 82 1017.7 3.1 SW 3.1 0.0 0.0
01:08 14.3 11.1 81 1017.8 3.1 W 3.1 0.0 0.0
01:09 14.4 11.4 82 1017.7 3.8 W 3.8 0.0 0.0
01:10 14.4 11.4 82 1017.7 2.2 W 3.8 0.0 0.0
01:11 14.4 11.4 82 1017.7 3.1 W 3.8 0.0 0.0
01:12 14.4 11.4 82 1017.6 3.1 W 3.8 0.0 0.0
01:13 14.4 11.4 82 1017.6 1.6 W 3.8 0.0 0.0
01:14 14.4 11.4 82 1017.5 2.2 SW 3.8 0.0 0.0
01:16 14.4 11.4 82 1017.6 2.2 SW 3.8 0.0 0.0
01:17 14.4 11.4 82 1017.5 3.1 NW 3.8 0.0 0.0
01:18 14.4 11.4 82 1017.7 3.1 W 3.8 0.0 0.0
01:19 14.4 11.4 82 1017.7 2.2 W 3.8 0.0 0.0
01:20 14.4 11.4 82 1017.6 3.1 SW 3.1 0.0 0.0
01:21 14.4 11.4 82 1017.5 1.6 W 3.1 0.0 0.0
01:22 14.4 11.4 82 1017.7 2.2 SW 3.1 0.0 0.0
01:23 14.4 11.4 82 1017.5 2.2 W 3.1 0.0 0.0
01:24 14.4 11.4 82 1017.5 3.1 W 3.1 0.0 0.0
01:25 14.4 11.4 82 1017.5 2.2 W 3.1 0.0 0.0
01:26 14.4 11.4 82 1017.5 2.2 W 3.1 0.0 0.0
01:27 14.4 11.4 82 1017.5 3.1 W 3.8 0.0 0.0
01:28 14.4 11.4 82 1017.5 3.1 W 3.8 0.0 0.0
01:29 14.4 11.4 82 1017.6 3.8 W 3.8 0.0 0.0
01:30 14.4 11.4 82 1017.6 3.1 SW 3.8 0.0 0.0
01:31 14.4 11.4 82 1017.5 2.2 W 3.8 0.0 0.0
01:32 14.4 11.4 82 1017.4 2.2 W 3.8 0.0 0.0
01:33 14.4 11.4 82 1017.5 3.1 W 3.8 0.0 0.0
01:34 14.4 11.4 82 1017.4 3.1 W 3.8 0.0 0.0
01:36 14.4 11.4 82 1017.5 2.2 W 3.8 0.0 0.0
01:37 14.4 11.4 82 1017.6 2.2 WSW 3.8 0.0 0.0
01:38 14.4 11.4 82 1017.5 2.2 W 3.8 0.0 0.0
01:39 14.4 11.4 82 1017.5 2.2 NW 3.8 0.0 0.0
01:40 14.4 11.4 82 1017.4 2.2 W 3.1 0.0 0.0
01:41 14.4 11.4 82 1017.5 2.2 W 3.1 0.0 0.0
01:42 14.4 11.6 83 1017.5 2.2 W 3.1 0.0 0.0
01:43 14.4 11.4 82 1017.4 1.6 W 3.1 0.0 0.0
01:44 14.3 11.5 83 1017.5 1.6 W 3.1 0.0 0.0
01:45 14.3 11.5 83 1017.5 1.6 W 3.1 0.0 0.0
01:46 14.3 11.5 83 1017.5 2.2 NNW 3.1 0.0 0.0
01:47 14.3 11.5 83 1017.5 2.2 W 3.1 0.0 0.0
01:48 14.3 11.5 83 1017.5 2.2 W 2.2 0.0 0.0
01:49 14.3 11.5 83 1017.4 1.6 W 2.2 0.0 0.0
01:50 14.3 11.5 83 1017.4 1.6 W 2.2 0.0 0.0
01:51 14.3 11.5 83 1017.3 1.6 WSW 2.2 0.0 0.0
01:52 14.3 11.5 83 1017.4 1.6 W 2.2 0.0 0.0
01:53 14.3 11.5 83 1017.4 2.2 W 2.2 0.0 0.0
01:55 14.3 11.5 83 1017.6 2.2 W 2.2 0.0 0.0
01:56 14.3 11.5 83 1017.5 2.2 W 2.2 0.0 0.0
01:57 14.3 11.5 83 1017.5 2.2 SW 2.2 0.0 0.0
01:58 14.3 11.5 83 1017.6 2.2 NW 2.2 0.0 0.0
01:59 14.3 11.5 83 1017.4 1.6 NW 2.2 0.0 0.0
02:00 14.3 11.5 83 1017.5 1.6 W 2.2 0.0 0.0
02:01 14.3 11.5 83 1017.4 1.6 W 2.2 0.0 0.0
02:02 14.3 11.5 83 1017.7 0.7 W 2.2 0.0 0.0
02:03 14.3 11.5 83 1017.7 1.6 W 2.2 0.0 0.0
02:04 14.2 11.4 83 1017.5 2.2 NW 2.2 0.0 0.0
02:05 14.2 11.4 83 1017.6 1.6 W 2.2 0.0 0.0
02:06 14.2 11.4 83 1017.4 0.7 W 2.2 0.0 0.0
02:07 14.2 11.4 83 1017.4 0.7 W 2.2 0.0 0.0
02:08 14.2 11.4 83 1017.6 0.7 W 2.2 0.0 0.0
02:09 14.2 11.4 83 1017.3 0.0 W 2.2 0.0 0.0
02:10 14.2 11.4 83 1017.6 1.6 SE 2.2 0.0 0.0
02:11 14.2 11.4 83 1017.6 1.6 SE 2.2 0.0 0.0
02:12 14.2 11.4 83 1017.6 1.6 SE 2.2 0.0 0.0
02:14 14.1 11.3 83 1017.5 0.7 NW 2.2 0.0 0.0
02:15 14.1 11.3 83 1017.5 0.7 SE 1.6 0.0 0.0
02:16 14.0 11.2 83 1017.5 0.0 N 1.6 0.0 0.0
02:17 14.0 11.0 82 1017.6 0.0 N 1.6 0.0 0.0
02:18 14.0 11.2 83 1017.5 0.0 N 1.6 0.0 0.0
02:19 13.9 10.9 82 1017.5 0.7 NE 1.6 0.0 0.0
02:20 13.9 10.9 82 1017.5 0.0 NE 1.6 0.0 0.0
02:21 13.9 10.9 82 1017.5 0.0 NE 1.6 0.0 0.0
02:22 13.9 10.9 82 1017.5 0.0 NE 1.6 0.0 0.0
02:23 13.8 10.8 82 1017.4 0.0 NE 1.6 0.0 0.0
02:24 13.8 10.8 82 1017.4 0.0 NE 1.6 0.0 0.0
02:25 13.8 10.8 82 1017.5 0.0 NE 1.6 0.0 0.0
02:26 13.8 10.8 82 1017.3 0.0 NE 1.6 0.0 0.0
02:27 13.8 10.8 82 1017.4 0.0 NE 1.6 0.0 0.0
02:28 13.8 10.8 82 1017.5 0.0 NE 1.6 0.0 0.0
02:29 13.7 10.7 82 1017.6 0.7 NE 1.6 0.0 0.0
02:30 13.7 10.7 82 1017.5 0.0 NE 1.6 0.0 0.0
02:31 13.7 10.7 82 1017.4 0.0 N 1.6 0.0 0.0
02:33 13.7 10.9 83 1017.4 0.0 N 1.6 0.0 0.0
02:34 13.7 10.7 82 1017.4 0.0 N 1.6 0.0 0.0
02:35 13.6 10.8 83 1017.5 0.0 N 1.6 0.0 0.0
02:36 13.6 10.8 83 1017.4 0.0 N 1.6 0.0 0.0
02:37 13.6 10.8 83 1017.4 0.0 N 1.6 0.0 0.0
02:38 13.6 10.8 83 1017.4 0.0 N 1.6 0.0 0.0
02:39 13.6 10.8 83 1017.5 0.0 N 0.7 0.0 0.0
02:40 13.6 10.8 83 1017.4 0.7 NW 0.7 0.0 0.0
02:41 13.6 10.8 83 1017.5 0.7 NW 0.7 0.0 0.0
02:42 13.5 10.7 83 1017.4 0.0 NW 0.7 0.0 0.0
02:43 13.5 10.7 83 1017.4 0.0 NW 0.7 0.0 0.0
02:44 13.5 10.7 83 1017.4 0.0 NW 0.7 0.0 0.0
02:45 13.5 10.5 82 1017.3 0.0 NW 0.7 0.0 0.0
02:46 13.4 10.4 82 1017.5 0.0 NW 0.7 0.0 0.0
02:47 13.4 10.4 82 1017.4 0.0 NW 0.7 0.0 0.0
02:48 13.4 10.4 82 1017.5 0.0 NW 0.7 0.0 0.0
02:49 13.4 10.4 82 1017.3 0.7 E 0.7 0.0 0.0
02:50 13.4 10.4 82 1017.3 0.7 E 0.7 0.0 0.0
02:52 13.3 10.3 82 1017.4 0.7 E 0.7 0.0 0.0
02:53 13.3 10.5 83 1017.4 0.7 S 0.7 0.0 0.0
02:54 13.3 10.5 83 1017.3 0.7 S 0.7 0.0 0.0
02:55 13.3 10.5 83 1017.3 0.7 S 0.7 0.0 0.0
02:56 13.3 10.5 83 1017.4 1.6 S 1.6 0.0 0.0
02:57 13.3 10.5 83 1017.4 2.2 SE 2.2 0.0 0.0
02:58 13.3 10.5 83 1017.3 2.2 SE 2.2 0.0 0.0
02:59 13.2 10.4 83 1017.3 1.6 SE 2.2 0.0 0.0
03:00 13.2 10.4 83 1017.3 2.2 E 2.2 0.0 0.0
03:01 13.2 10.4 83 1017.3 2.2 E 2.2 0.0 0.0
03:02 13.2 10.4 83 1017.6 2.2 SE 2.2 0.0 0.0
03:03 13.2 10.4 83 1017.3 1.6 SE 2.2 0.0 0.0
03:04 13.2 10.4 83 1017.3 1.6 SE 2.2 0.0 0.0
03:05 13.2 10.4 83 1017.3 1.6 SE 2.2 0.0 0.0
03:06 13.2 10.4 83 1017.4 1.6 SE 2.2 0.0 0.0
03:07 13.2 10.4 83 1017.3 1.6 SE 2.2 0.0 0.0
03:08 13.2 10.4 83 1017.4 1.6 SE 2.2 0.0 0.0
03:09 13.2 10.4 83 1017.3 0.0 SE 2.2 0.0 0.0
03:10 13.2 10.4 83 1017.5 0.0 SE 2.2 0.0 0.0
03:11 13.2 10.4 83 1017.3 0.0 SE 2.2 0.0 0.0
03:13 13.2 10.6 84 1017.4 0.0 SE 1.6 0.0 0.0
03:14 13.2 10.6 84 1017.4 0.0 SE 1.6 0.0 0.0
03:15 13.2 10.6 84 1017.4 0.0 SE 1.6 0.0 0.0
03:16 13.2 10.6 84 1017.4 0.0 SE 1.6 0.0 0.0
03:17 13.2 10.6 84 1017.5 0.0 SE 1.6 0.0 0.0
03:18 13.2 10.6 84 1017.3 0.0 SE 0.7 0.0 0.0
03:19 13.2 10.6 84 1017.2 0.0 N 0.0 0.0 0.0
03:20 13.2 10.6 84 1017.3 0.7 N 0.7 0.0 0.0
03:21 13.2 10.6 84 1017.3 0.0 N 0.7 0.0 0.0
03:22 13.2 10.6 84 1017.3 0.0 N 0.7 0.0 0.0
03:23 13.1 10.5 84 1017.3 0.0 N 0.7 0.0 0.0
03:24 13.1 10.5 84 1017.3 0.0 N 0.7 0.0 0.0
03:25 13.2 10.6 84 1017.4 0.0 N 0.7 0.0 0.0
03:26 13.1 10.5 84 1017.3 0.0 N 0.7 0.0 0.0
03:27 13.2 10.6 84 1017.3 0.0 N 0.7 0.0 0.0
03:28 13.2 10.6 84 1017.3 0.0 E 0.7 0.0 0.0
03:29 13.2 10.6 84 1017.2 0.0 E 0.7 0.0 0.0
03:30 13.2 10.6 84 1017.4 0.0 E 0.7 0.0 0.0
03:32 13.2 10.6 84 1017.4 0.0 E 0.0 0.0 0.0
03:33 13.2 10.6 84 1017.4 0.0 E 0.0 0.0 0.0
03:34 13.2 10.6 84 1017.4 0.0 E 0.0 0.0 0.0
03:35 13.2 10.6 84 1017.3 0.7 SE 0.7 0.0 0.0
03:36 13.2 10.6 84 1017.3 0.0 SE 0.7 0.0 0.0
03:37 13.2 10.6 84 1017.3 0.0 SE 0.7 0.0 0.0
03:38 13.2 10.6 84 1017.3 0.0 SE 0.7 0.0 0.0
03:39 13.3 10.7 84 1017.3 0.0 SE 0.7 0.0 0.0
03:40 13.3 10.7 84 1017.3 0.0 N 0.7 0.0 0.0
03:41 13.3 10.7 84 1017.2 0.0 N 0.7 0.0 0.0
03:42 13.3 10.7 84 1017.3 0.0 N 0.7 0.0 0.0
03:43 13.3 10.7 84 1017.3 0.0 N 0.7 0.0 0.0
03:44 13.3 10.7 84 1017.3 0.0 N 0.7 0.0 0.0
03:45 13.3 10.7 84 1017.3 0.0 N 0.0 0.0 0.0
03:46 13.3 10.8 85 1017.3 0.0 N 0.0 0.0 0.0
03:47 13.3 10.7 84 1017.2 0.0 N 0.0 0.0 0.0
03:48 13.3 10.8 85 1017.3 0.0 N 0.0 0.0 0.0
03:49 13.3 10.7 84 1017.2 0.0 N 0.0 0.0 0.0
03:50 13.3 10.7 84 1017.3 0.0 N 0.0 0.0 0.0
03:51 13.3 10.7 84 1017.1 0.0 NW 0.0 0.0 0.0
03:52 13.4 10.8 84 1017.3 1.6 S 1.6 0.0 0.0
03:53 13.4 10.8 84 1017.3 1.6 S 1.6 0.0 0.0
03:54 13.4 10.9 85 1017.2 0.0 S 1.6 0.0 0.0
03:55 13.4 10.9 85 1017.4 0.7 S 1.6 0.0 0.0
03:56 13.4 10.9 85 1017.3 0.7 S 1.6 0.0 0.0
03:57 13.4 10.9 85 1017.3 0.7 S 1.6 0.0 0.0
03:58 13.4 10.9 85 1017.3 0.7 S 1.6 0.0 0.0
03:59 13.4 10.9 85 1017.3 1.6 S 1.6 0.0 0.0
04:00 13.4 10.9 85 1017.4 1.6 S 1.6 0.0 0.0
04:01 13.4 10.9 85 1017.2 1.6 S 1.6 0.0 0.0
04:02 13.4 10.9 85 1017.2 1.6 S 1.6 0.0 0.0
04:03 13.4 10.9 85 1017.2 1.6 S 1.6 0.0 0.0
04:04 13.4 10.9 85 1017.3 1.6 S 1.6 0.0 0.0
04:05 13.4 10.9 85 1017.1 1.6 S 1.6 0.0 0.0
04:06 13.4 10.9 85 1017.2 1.6 SE 1.6 0.0 0.0
04:07 13.4 10.9 85 1017.3 1.6 SE 1.6 0.0 0.0
04:08 13.5 11.0 85 1017.2 1.6 SE 1.6 0.0 0.0
04:09 13.5 11.0 85 1017.3 2.2 S 2.2 0.0 0.0
04:11 13.5 11.0 85 1017.2 2.2 S 2.2 0.0 0.0
04:12 13.5 11.0 85 1017.2 1.6 SE 2.2 0.0 0.0
04:13 13.5 11.0 85 1017.3 1.6 SE 2.2 0.0 0.0
04:14 13.5 11.0 85 1017.2 1.6 SE 2.2 0.0 0.0
04:15 13.5 11.0 85 1017.2 1.6 SE 2.2 0.0 0.0
04:16 13.5 11.0 85 1017.1 1.6 SE 2.2 0.0 0.0
04:17 13.5 11.0 85 1017.2 1.6 SE 2.2 0.0 0.0
04:18 13.5 11.0 85 1017.1 1.6 SE 2.2 0.0 0.0
04:19 13.6 11.1 85 1017.3 1.6 ESE 2.2 0.0 0.0
04:20 13.5 11.0 85 1017.1 1.6 SE 2.2 0.0 0.0
04:21 13.6 11.1 85 1017.2 0.7 SE 2.2 0.0 0.0
04:22 13.5 11.0 85 1017.1 1.6 SE 2.2 0.0 0.0
04:23 13.6 11.1 85 1017.1 0.7 SE 2.2 0.0 0.0
04:24 13.6 11.1 85 1017.2 1.6 SE 2.2 0.0 0.0
04:25 13.6 11.1 85 1017.1 0.7 SE 2.2 0.0 0.0
04:26 13.6 11.1 85 1017.1 1.6 SE 2.2 0.0 0.0
04:27 13.6 11.1 85 1017.2 0.7 SE 2.2 0.0 0.0
04:28 13.6 11.1 85 1017.1 0.7 SE 2.2 0.0 0.0
04:30 13.6 11.1 85 1017.1 1.6 SE 1.6 0.0 0.0
04:31 13.6 11.1 85 1017.1 1.6 SE 1.6 0.0 0.0
04:32 13.6 11.1 85 1017.2 1.6 SE 1.6 0.0 0.0
04:33 13.6 11.1 85 1017.2 1.6 E 1.6 0.0 0.0
04:34 13.6 11.1 85 1017.2 0.7 E 1.6 0.0 0.0
04:35 13.6 11.1 85 1017.3 0.7 E 1.6 0.0 0.0
04:36 13.6 11.1 85 1017.2 1.6 SE 1.6 0.0 0.0
04:37 13.6 11.1 85 1017.0 1.6 S 1.6 0.0 0.0
04:38 13.6 11.1 85 1017.3 1.6 SE 1.6 0.0 0.0
04:39 13.6 11.1 85 1017.3 1.6 SE 1.6 0.0 0.0
04:40 13.6 11.1 85 1017.1 1.6 SE 1.6 0.0 0.0
04:41 13.6 11.1 85 1017.1 1.6 SE 1.6 0.0 0.0
04:42 13.6 11.1 85 1017.1 1.6 SE 1.6 0.0 0.0
04:43 13.6 11.1 85 1017.2 1.6 SE 1.6 0.0 0.0
04:44 13.6 11.1 85 1017.2 1.6 SE 1.6 0.0 0.0
04:45 13.6 11.1 85 1017.2 1.6 SE 1.6 0.0 0.0
04:46 13.6 11.1 85 1017.3 1.6 S 1.6 0.0 0.0
04:47 13.6 11.1 85 1017.3 1.6 S 1.6 0.0 0.0
04:48 13.6 11.1 85 1017.1 0.7 SE 1.6 0.0 0.0
04:49 13.6 11.1 85 1017.3 1.6 S 1.6 0.0 0.0
04:50 13.7 11.2 85 1017.3 0.7 S 1.6 0.0 0.0
04:51 13.6 11.1 85 1017.3 0.7 S 1.6 0.0 0.0
04:52 13.6 11.1 85 1017.3 0.7 S 1.6 0.0 0.0
04:53 13.7 11.2 85 1017.3 0.0 S 1.6 0.0 0.0
04:54 13.6 11.1 85 1017.3 0.0 S 1.6 0.0 0.0
04:55 13.6 11.1 85 1017.3 0.0 S 1.6 0.0 0.0
04:56 13.6 11.1 85 1017.2 0.0 S 1.6 0.0 0.0
04:57 13.6 11.1 85 1017.3 0.0 S 1.6 0.0 0.0
04:58 13.6 11.1 85 1017.1 0.0 S 1.6 0.0 0.0
04:59 13.6 11.1 85 1017.2 0.0 S 1.6 0.0 0.0
05:00 13.6 11.1 85 1017.3 0.7 W 0.7 0.0 0.0
05:01 13.6 11.1 85 1017.3 1.6 W 1.6 0.0 0.0
05:02 13.6 11.1 85 1017.2 0.0 W 1.6 0.0 0.0
05:03 13.6 11.1 85 1017.2 0.7 W 1.6 0.0 0.0
05:04 13.6 11.1 85 1017.3 0.0 W 1.6 0.0 0.0
05:05 13.7 11.2 85 1017.2 2.2 S 2.2 0.0 0.0
05:06 13.7 11.2 85 1017.2 3.1 S 3.1 0.0 0.0
05:07 13.7 11.2 85 1017.3 2.2 SE 3.1 0.0 0.0
05:08 13.6 11.1 85 1017.3 2.2 S 3.1 0.0 0.0
05:09 13.7 11.4 86 1017.3 1.6 S 3.1 0.0 0.0
05:10 13.7 11.4 86 1017.3 1.6 SE 3.1 0.0 0.0
05:11 13.7 11.4 86 1017.3 1.6 SW 3.1 0.0 0.0
05:12 13.7 11.4 86 1017.3 3.1 S 3.1 0.0 0.0
05:13 13.7 11.4 86 1017.2 2.2 SE 3.1 0.0 0.0
05:14 13.7 11.4 86 1017.2 2.2 S 3.1 0.0 0.0
05:15 13.7 11.2 85 1017.3 1.6 SE 3.1 0.0 0.0
05:16 13.7 11.4 86 1017.4 2.2 SE 3.1 0.0 0.0
05:17 13.7 11.4 86 1017.2 2.2 S 3.1 0.0 0.0
05:18 13.7 11.4 86 1017.4 2.2 S 3.1 0.0 0.0
05:19 13.7 11.4 86 1017.2 2.2 S 3.1 0.0 0.0
05:20 13.7 11.4 86 1017.5 2.2 SW 3.1 0.0 0.0
05:21 13.7 11.4 86 1017.5 2.2 SW 3.1 0.0 0.0
05:22 13.7 11.4 86 1017.3 1.6 W 3.1 0.0 0.0
05:23 13.7 11.4 86 1017.4 1.6 W 3.1 0.0 0.0
05:24 13.7 11.4 86 1017.3 3.1 SW 3.1 0.0 0.0
05:25 13.7 11.4 86 1017.4 3.8 SW 3.8 0.0 0.0
05:26 13.7 11.4 86 1017.3 4.5 SW 7.6 0.0 0.0
05:27 13.7 11.4 86 1017.3 4.5 SW 7.6 0.0 0.0
05:28 13.7 11.4 86 1017.4 5.4 S 7.6 0.0 0.0
05:29 13.7 11.4 86 1017.3 6.0 SW 7.6 0.0 0.0
05:30 13.7 11.4 86 1017.3 7.6 S 7.6 0.0 0.0
05:31 13.7 11.4 86 1017.4 7.6 S 7.6 0.0 0.0
05:32 13.7 11.4 86 1017.5 5.4 SW 7.6 0.0 0.0
05:33 13.7 11.4 86 1017.3 4.5 SSW 7.6 0.0 0.0
05:34 13.7 11.4 86 1017.4 4.5 S 7.6 0.0 0.0
05:35 13.8 11.7 87 1017.4 4.5 SW 7.6 0.0 0.0
05:36 13.8 11.7 87 1017.4 3.8 SW 7.6 0.0 0.0
05:37 13.8 11.7 87 1017.4 5.4 SW 7.6 0.0 0.0
05:38 13.8 11.7 87 1017.5 6.9 SW 7.6 0.0 0.0
05:39 13.8 11.7 87 1017.6 6.0 SW 7.6 0.0 0.0
05:40 13.8 11.7 87 1017.3 4.5 SW 7.6 0.0 0.0
05:41 13.8 11.7 87 1017.3 5.4 SW 6.9 0.0 0.0
05:42 13.8 11.7 87 1017.3 7.6 SW 7.6 0.0 0.0
05:43 13.8 11.7 87 1017.5 5.4 SW 7.6 0.0 0.0
05:44 13.8 11.7 87 1017.5 5.4 S 7.6 0.0 0.0
05:45 13.8 11.7 87 1017.4 5.4 WSW 7.6 0.0 0.0
05:46 13.8 11.7 87 1017.5 6.0 SW 7.6 0.0 0.0
05:47 13.8 11.7 87 1017.4 6.9 SW 7.6 0.0 0.0
05:48 13.8 11.7 87 1017.6 6.9 SW 7.6 0.0 0.0
05:49 13.9 11.8 87 1017.4 5.4 SW 7.6 0.0 0.0
05:50 13.9 11.8 87 1017.5 3.8 NW 7.6 0.0 0.0
05:51 13.9 11.8 87 1017.5 6.0 SW 7.6 0.0 0.0
05:52 13.9 11.8 87 1017.3 5.4 SW 6.9 0.0 0.0
05:53 13.9 11.8 87 1017.5 6.9 W 6.9 0.0 0.0
05:54 13.9 11.8 87 1017.5 9.8 WSW 10.7 0.0 0.0
05:55 13.9 11.8 87 1017.4 9.8 W 10.7 0.0 0.0
05:56 13.9 11.8 87 1017.4 9.8 W 10.7 0.0 0.0
05:57 14.0 11.9 87 1017.4 6.0 NW 10.7 0.0 0.0
05:58 14.0 11.7 86 1017.3 4.5 NE 10.7 0.0 0.0
05:59 14.0 11.7 86 1017.3 3.1 SW 10.7 0.0 0.0
06:00 14.0 11.7 86 1017.3 3.1 WNW 10.7 0.0 0.0
06:01 14.1 11.8 86 1017.2 3.1 WSW 10.7 0.0 0.0
06:02 14.1 11.8 86 1017.2 3.1 WSW 10.7 0.0 0.0
06:03 14.1 11.8 86 1017.2 3.1 WSW 10.7 0.0 0.0
06:04 14.1 11.8 86 1017.2 3.1 WSW 9.8 0.0 0.0
06:05 14.2 11.7 85 1017.3 4.5 SW 9.8 0.0 0.0
06:06 14.3 11.8 85 1017.2 3.1 SW 6.0 0.0 0.0
06:07 14.3 11.8 85 1017.2 3.1 W 4.5 0.0 0.0
06:08 14.3 11.8 85 1017.2 2.2 W 4.5 0.0 0.0
06:09 14.3 11.8 85 1017.2 2.2 W 4.5 0.0 0.0
06:10 14.4 11.7 84 1017.2 3.1 SW 4.5 0.0 0.0
06:11 14.4 11.7 84 1017.2 3.1 SW 4.5 0.0 0.0
06:12 14.4 11.7 84 1017.2 3.1 SW 4.5 0.0 0.0
06:13 14.4 11.7 84 1017.3 2.2 SW 4.5 0.0 0.0
06:14 14.4 11.7 84 1017.3 3.1 SW 4.5 0.0 0.0
06:15 14.5 11.8 84 1017.3 3.1 SW 4.5 0.0 0.0
06:16 14.4 11.7 84 1017.4 1.6 W 3.8 0.0 0.0
06:17 14.5 11.8 84 1017.3 2.2 W 3.1 0.0 0.0
06:18 14.5 11.8 84 1017.3 2.2 SW 3.1 0.0 0.0
06:19 14.5 11.8 84 1017.3 1.6 W 3.1 0.0 0.0
06:20 14.5 11.8 84 1017.4 1.6 W 3.1 0.0 0.0
06:21 14.5 11.8 84 1017.3 0.7 W 3.1 0.0 0.0
06:22 14.5 11.7 83 1017.4 1.6 W 3.1 0.0 0.0
06:23 14.5 11.7 83 1017.5 1.6 NW 3.1 0.0 0.0
06:24 14.5 11.7 83 1017.3 1.6 W 3.1 0.0 0.0
06:25 14.6 11.8 83 1017.4 2.2 W 2.2 0.0 0.0
06:26 14.5 11.7 83 1017.5 2.2 SW 2.2 0.0 0.0
06:27 14.5 11.7 83 1017.4 2.2 W 2.2 0.0 0.0
06:28 14.6 11.8 83 1017.5 2.2 SE 2.2 0.0 0.0
06:29 14.5 11.7 83 1017.4 3.1 NW 3.1 0.0 0.0
06:30 14.6 11.8 83 1017.4 2.2 W 3.1 0.0 0.0
06:31 14.6 11.8 83 1017.4 1.6 W 3.1 0.0 0.0
06:32 14.6 11.8 83 1017.5 3.1 W 3.1 0.0 0.0
06:33 14.6 11.8 83 1017.5 3.1 WSW 3.1 0.0 0.0
06:34 14.6 11.8 83 1017.4 2.2 SW 3.1 0.0 0.0
06:35 14.7 11.8 83 1017.4 2.2 SW 3.1 0.0 0.0
06:36 14.7 11.8 83 1017.3 2.2 NW 3.1 0.0 0.0
06:37 14.7 11.8 83 1017.4 4.5 SW 4.5 0.0 0.0
06:38 14.7 11.8 83 1017.4 3.1 W 4.5 0.0 0.0
06:39 14.7 11.8 83 1017.4 3.1 W 4.5 0.0 0.0
06:40 14.7 11.8 83 1017.5 3.1 SW 4.5 0.0 0.0
06:41 14.8 11.9 83 1017.3 3.1 SW 4.5 0.0 0.0
06:42 14.8 11.9 83 1017.3 3.1 W 4.5 0.0 0.0
06:43 14.8 11.8 82 1017.5 3.8 WNW 4.5 0.0 0.0
06:44 14.8 11.8 82 1017.6 3.1 W 4.5 0.0 0.0
06:45 14.8 11.8 82 1017.5 3.8 SW 4.5 0.0 0.0
06:46 14.8 11.8 82 1017.5 3.1 SW 4.5 0.0 0.0
06:47 14.8 11.8 82 1017.7 3.8 SW 3.8 0.0 0.0
06:48 14.9 11.9 82 1017.6 4.5 SW 4.5 0.0 0.0
06:49 14.9 11.9 82 1017.6 5.4 SW 5.4 0.0 0.0
06:50 14.9 11.9 82 1017.6 5.4 NW 5.4 0.0 0.0
06:51 14.9 11.9 82 1017.5 6.9 SW 6.9 0.0 0.0
06:52 14.9 11.9 82 1017.6 6.0 S 6.9 0.0 0.0
06:53 14.9 11.9 82 1017.6 7.6 W 7.6 0.0 0.0
06:54 14.9 11.9 82 1017.6 7.6 SW 7.6 0.0 0.0
06:55 14.9 11.9 82 1017.8 6.9 W 7.6 0.0 0.0
06:56 14.9 11.9 82 1017.7 6.9 WSW 7.6 0.0 0.0
06:57 15.0 11.8 81 1017.8 7.6 SW 7.6 0.0 0.0
06:58 15.0 11.8 81 1017.9 8.3 SW 8.3 0.0 0.0
06:59 15.0 11.8 81 1017.7 6.0 SW 8.3 0.0 0.0
07:00 15.0 11.8 81 1017.8 6.9 SW 8.3 0.0 0.0
07:01 15.0 11.8 81 1017.9 4.5 SW 8.3 0.0 0.0
07:02 15.0 11.8 81 1017.8 4.5 W 8.3 0.0 0.0
07:03 15.0 11.8 81 1018.0 6.9 S 8.3 0.0 0.0
07:04 15.0 11.8 81 1017.8 6.0 SW 8.3 0.0 0.0
07:05 15.0 11.8 81 1017.9 6.0 SW 8.3 0.0 0.0
07:06 15.0 11.8 81 1017.9 6.9 W 8.3 0.0 0.0
07:07 15.0 11.8 81 1018.1 6.0 W 8.3 0.0 0.0
07:08 15.1 11.9 81 1018.1 6.0 SW 8.3 0.0 0.0
07:09 15.0 11.8 81 1018.0 4.5 SW 8.3 0.0 0.0
07:10 15.0 12.0 82 1017.9 4.5 W 8.3 0.0 0.0
07:11 15.0 12.0 82 1017.9 5.4 WSW 8.3 0.0 0.0
07:12 15.0 12.0 82 1017.9 6.9 NW 8.3 0.0 0.0
07:13 15.0 12.0 82 1018.1 6.9 W 8.3 0.0 0.0
07:14 15.0 12.0 82 1018.1 4.5 SW 8.3 0.0 0.0
07:15 15.0 12.0 82 1018.1 5.4 NNW 8.3 0.0 0.0
07:16 15.0 12.0 82 1018.0 5.4 SW 8.3 0.0 0.0
07:17 15.0 12.0 82 1018.0 6.9 W 8.3 0.0 0.0
07:18 15.0 12.0 82 1017.9 6.0 SW 8.3 0.0 0.0
07:19 15.0 12.0 82 1017.8 5.4 W 8.3 0.0 0.0
07:20 15.0 12.0 82 1017.9 4.5 NW 6.9 0.0 0.0
07:21 15.0 12.0 82 1017.9 3.1 SE 6.9 0.0 0.0
07:22 15.0 12.0 82 1017.7 4.5 W 6.9 0.0 0.0
07:23 15.0 12.0 82 1017.8 3.1 N 6.9 0.0 0.0
07:24 15.0 12.1 83 1017.8 3.8 WNW 6.9 0.0 0.0
07:25 14.9 12.0 83 1017.8 3.8 WSW 6.9 0.0 0.0
07:26 14.9 12.0 83 1017.8 3.8 SW 6.9 0.0 0.0
07:27 14.9 12.0 83 1017.8 3.8 SW 6.9 0.0 0.0
07:28 14.9 12.0 83 1017.7 3.1 WSW 6.0 0.0 0.0
07:29 14.9 12.0 83 1017.6 3.1 W 5.4 0.0 0.0
07:30 14.9 12.0 83 1017.7 2.2 SW 4.5 0.0 0.0
07:31 14.9 12.0 83 1017.7 1.6 W 4.5 0.0 0.0
07:32 15.0 12.1 83 1017.8 4.5 SW 4.5 0.0 0.0
07:33 15.0 12.1 83 1017.8 4.5 SW 4.5 0.0 0.0
07:34 15.0 12.1 83 1017.8 4.5 W 4.5 0.0 0.0
07:35 15.0 12.1 83 1017.9 3.8 SW 4.5 0.0 0.0
07:36 15.0 12.1 83 1017.9 3.8 SW 4.5 0.0 0.0
07:37 15.0 12.1 83 1017.9 4.5 NW 4.5 0.0 0.0
07:38 15.0 12.1 83 1017.9 4.5 W 4.5 0.0 0.0
07:39 15.0 12.1 83 1017.8 5.4 W 5.4 0.0 0.0
07:40 15.1 12.2 83 1017.8 4.5 NW 5.4 0.0 0.0
07:41 15.1 12.2 83 1017.8 4.5 SW 5.4 0.0 0.0
07:42 15.1 12.2 83 1017.9 3.8 SW 5.4 0.0 0.0
07:43 15.1 12.1 82 1017.8 4.5 S 5.4 0.0 0.0
07:44 15.1 12.2 83 1017.8 3.8 SW 5.4 0.0 0.0
07:45 15.2 12.3 83 1017.9 3.8 W 5.4 0.0 0.0
07:46 15.2 12.3 83 1017.9 4.5 SW 5.4 0.0 0.0
07:47 15.2 12.3 83 1018.0 4.5 SSW 5.4 0.0 0.0
07:48 15.2 12.3 83 1017.9 3.8 W 5.4 0.0 0.0
07:49 15.3 12.4 83 1018.0 3.8 S 5.4 0.0 0.0
07:50 15.3 12.4 83 1017.9 4.5 SW 4.5 0.0 0.0
07:51 15.3 12.4 83 1017.9 4.5 SW 4.5 0.0 0.0
07:52 15.3 12.4 83 1018.0 4.5 SW 4.5 0.0 0.0
07:53 15.4 12.5 83 1017.9 5.4 SW 5.4 0.0 0.0
07:54 15.4 12.5 83 1018.1 4.5 SW 5.4 0.0 0.0
07:55 15.4 12.5 83 1018.0 3.8 S 5.4 0.0 0.0
07:56 15.4 12.5 83 1018.0 5.4 S 5.4 0.0 0.0
07:57 15.4 12.5 83 1018.1 5.4 WSW 5.4 0.0 0.0
07:58 15.5 12.6 83 1018.0 5.4 SW 5.4 0.0 0.0
07:59 15.5 12.6 83 1018.0 7.6 SW 7.6 0.0 0.0
08:00 15.5 12.6 83 1018.0 6.9 SW 7.6 0.0 0.0
08:01 15.5 12.6 83 1017.9 5.4 SW 7.6 0.0 0.0
08:02 15.5 12.6 83 1018.0 5.4 SE 7.6 0.0 0.0
08:03 15.5 12.6 83 1018.0 6.9 SW 7.6 0.0 0.0
08:04 15.5 12.6 83 1018.1 7.6 S 7.6 0.0 0.0
08:05 15.5 12.6 83 1018.3 9.2 SW 9.2 0.0 0.0
08:06 15.6 12.7 83 1018.1 7.6 SW 9.2 0.0 0.0
08:07 15.5 12.6 83 1018.0 8.3 S 9.2 0.0 0.0
08:08 15.5 12.6 83 1018.1 6.0 SW 9.2 0.0 0.0
08:09 15.5 12.6 83 1018.2 6.9 SW 9.2 0.0 0.0
08:10 15.5 12.6 83 1018.1 8.3 NW 9.2 0.0 0.0
08:11 15.5 12.6 83 1018.1 9.2 SW 9.2 0.0 0.0
08:12 15.5 12.6 83 1018.1 7.6 SW 9.2 0.0 0.0
08:13 15.5 12.6 83 1018.2 9.8 SE 9.8 0.0 0.0
08:14 15.5 12.6 83 1018.0 6.9 SW 9.8 0.0 0.0
08:15 15.5 12.6 83 1018.0 7.6 SW 9.8 0.0 0.0
08:16 15.5 12.6 83 1018.0 8.3 WSW 9.8 0.0 0.0
08:17 15.5 12.8 84 1018.0 7.6 SW 9.8 0.0 0.0
08:18 15.4 12.7 84 1017.9 3.8 S 9.8 0.0 0.0
08:19 15.4 12.7 84 1017.9 3.8 SW 9.8 0.0 0.0
08:20 15.4 12.7 84 1017.9 3.8 SW 9.8 0.0 0.0
08:21 15.4 12.7 84 1017.8 2.2 SE 9.8 0.0 0.0
08:22 15.4 12.7 84 1017.9 2.2 SW 9.8 0.0 0.0
08:23 15.4 12.7 84 1018.0 1.6 NW 8.3 0.0 0.0
08:24 15.4 12.7 84 1017.8 1.6 N 8.3 0.0 0.0
08:25 15.5 12.8 84 1017.8 0.7 W 8.3 0.0 0.0
08:26 15.5 12.8 84 1017.8 1.6 NW 8.3 0.0 0.0
08:27 15.5 12.8 84 1017.8 3.1 SW 7.6 0.0 0.0
08:28 15.5 12.8 84 1017.9 3.8 SW 4.5 0.0 0.0
08:29 15.5 12.8 84 1018.0 2.2 S 4.5 0.0 0.0
08:30 15.5 12.8 84 1017.9 3.1 S 4.5 0.0 0.0
08:31 15.7 13.0 84 1017.8 3.1 S 4.5 0.0 0.0
08:32 15.6 12.9 84 1018.0 4.5 S 4.5 0.0 0.0
08:33 15.6 12.9 84 1018.0 2.2 E 4.5 0.0 0.0
08:34 15.6 12.9 84 1017.9 3.1 SE 4.5 0.0 0.0
08:35 15.6 12.9 84 1018.0 1.6 S 4.5 0.0 0.0
08:36 15.6 12.9 84 1018.0 2.2 SW 4.5 0.0 0.0
08:37 15.6 12.9 84 1018.0 2.2 S 4.5 0.0 0.0
08:38 15.6 12.9 84 1017.9 2.2 W 4.5 0.0 0.0
08:39 15.6 12.9 84 1017.9 2.2 W 4.5 0.0 0.0
08:40 15.6 12.9 84 1017.8 2.2 W 4.5 0.0 0.0
08:41 15.7 13.0 84 1018.0 2.2 W 4.5 0.0 0.0
08:42 15.7 13.0 84 1017.9 2.2 SW 4.5 0.0 0.0
08:43 15.7 13.0 84 1017.8 3.1 SW 3.1 0.0 0.0
08:44 15.7 13.0 84 1018.0 3.1 SW 3.1 0.0 0.0
08:45 15.7 13.0 84 1018.0 3.1 N 3.1 0.0 0.0
08:46 15.8 13.1 84 1018.1 3.8 SW 3.8 0.0 0.0
08:48 15.8 13.1 84 1018.0 3.8 NW 3.8 0.0 0.0
08:49 15.8 13.1 84 1018.1 4.5 NW 4.5 0.0 0.0
08:50 15.9 13.2 84 1017.9 3.8 SW 4.5 0.0 0.0
08:51 15.9 13.2 84 1017.8 3.1 W 4.5 0.0 0.0
08:52 15.9 13.2 84 1018.0 3.1 W 4.5 0.0 0.0
08:53 15.9 13.2 84 1018.0 2.2 SW 4.5 0.0 0.0
08:54 15.9 13.2 84 1017.9 3.8 SW 4.5 0.0 0.0
08:55 16.0 13.3 84 1017.9 4.5 S 4.5 0.0 0.0
08:56 16.0 13.3 84 1017.8 4.5 SW 4.5 0.0 0.0
08:57 16.0 13.3 84 1017.9 5.4 SW 5.4 0.0 0.0
08:58 16.1 13.4 84 1018.1 3.1 SW 5.4 0.0 0.0
08:59 16.1 13.4 84 1018.1 3.1 SW 5.4 0.0 0.0
09:00 16.1 13.4 84 1018.0 4.5 WSW 5.4 0.0 0.0
09:01 16.2 13.5 84 1017.9 5.4 SW 5.4 0.0 0.0
09:02 16.2 13.3 83 1018.0 3.8 SW 5.4 0.0 0.0
09:04 16.3 13.4 83 1018.0 6.0 W 6.0 0.0 0.0
09:05 16.4 13.5 83 1018.0 6.0 S 6.9 0.0 0.0
09:07 16.5 13.6 83 1018.0 4.5 W 6.9 0.0 0.0
09:08 16.5 13.6 83 1018.0 7.6 S 7.6 0.0 0.0
09:09 16.5 13.6 83 1018.1 5.4 SW 7.6 0.0 0.0
09:10 16.5 13.4 82 1018.0 5.4 W 7.6 0.0 0.0
09:11 16.6 13.5 82 1018.0 3.8 S 7.6 0.0 0.0
09:12 16.6 13.5 82 1018.2 5.4 SW 7.6 0.0 0.0
09:13 16.6 13.5 82 1018.1 6.9 WSW 7.6 0.0 0.0
09:14 16.6 13.5 82 1018.2 6.9 W 7.6 0.0 0.0
09:15 16.6 13.3 81 1018.1 7.6 SW 7.6 0.0 0.0
09:16 16.6 13.3 81 1018.1 6.0 W 7.6 0.0 0.0
09:17 16.6 13.3 81 1018.2 6.9 SW 7.6 0.0 0.0
09:18 16.6 13.3 81 1018.3 6.9 SW 7.6 0.0 0.0
09:19 16.6 13.3 81 1018.3 6.0 SW 7.6 0.0 0.0
09:20 16.6 13.3 81 1018.4 9.8 SW 9.8 0.0 0.0
09:21 16.5 13.2 81 1018.4 13.0 SW 13.0 0.0 0.0
09:22 16.4 13.1 81 1018.3 12.1 S 13.0 0.8 0.2
09:24 16.3 13.0 81 1018.4 6.9 SSE 13.0 3.0 0.3
09:25 16.2 12.9 81 1018.4 6.9 SW 13.0 3.8 0.3
09:26 16.1 12.8 81 1018.3 8.3 SW 13.0 3.8 0.3
09:27 16.0 12.7 81 1018.4 9.2 S 13.0 3.0 0.4
09:28 15.9 12.7 81 1018.4 6.0 WSW 13.0 2.3 0.4
09:29 15.9 12.7 81 1018.5 7.6 SW 13.0 1.5 0.4
09:30 15.8 12.7 82 1018.6 7.6 SW 13.0 0.8 0.4
09:31 15.8 12.7 82 1018.6 7.6 SW 13.0 0.8 0.4
09:32 15.8 12.7 82 1018.5 8.3 SW 12.1 1.5 0.4
09:33 15.7 12.6 82 1018.6 7.6 WSW 9.8 2.3 0.6
09:34 15.7 12.6 82 1018.5 6.0 SW 9.8 2.3 0.6
09:35 15.6 12.5 82 1018.6 4.5 W 9.8 2.3 0.6
09:36 15.6 12.7 83 1018.3 6.9 W 9.8 2.3 0.6
09:37 15.6 12.7 83 1018.3 5.4 W 9.2 1.5 0.6
09:39 15.5 12.6 83 1018.3 9.8 NW 9.8 0.8 0.6
09:40 15.5 12.6 83 1018.4 7.6 SW 9.8 0.8 0.6
09:41 15.5 12.8 84 1018.4 6.0 S 9.8 0.8 0.6
09:42 15.5 12.8 84 1018.4 6.9 SW 9.8 0.8 0.6
09:43 15.5 12.8 84 1018.5 6.9 SW 9.8 0.0 0.6
09:44 15.5 12.8 84 1018.5 6.9 SW 9.8 0.0 0.6
09:45 15.4 12.7 84 1018.5 11.4 SW 11.4 0.0 0.6
09:46 15.4 12.7 84 1018.3 8.3 SW 11.4 0.0 0.6
09:47 15.4 12.7 84 1018.4 6.9 SW 11.4 0.0 0.6
09:48 15.4 12.9 85 1018.5 6.9 N 11.4 0.0 0.6
09:49 15.4 12.9 85 1018.4 8.3 SW 11.4 0.0 0.6
09:50 15.4 12.9 85 1018.7 7.6 SW 11.4 0.0 0.6
09:51 15.3 12.8 85 1018.4 10.7 SW 11.4 0.0 0.6
09:52 15.3 12.8 85 1018.6 8.3 SSW 11.4 0.0 0.6
09:54 15.2 12.7 85 1018.5 11.4 SW 12.1 0.8 0.7
09:55 15.1 12.6 85 1018.5 10.7 S 12.1 0.8 0.8
09:56 15.1 12.6 85 1018.4 7.6 NW 12.1 1.5 0.8
09:57 15.1 12.6 85 1018.6 9.8 SW 12.1 1.5 0.8
09:58 15.0 12.5 85 1018.6 9.2 SW 12.1 1.5 0.8
09:59 15.0 12.5 85 1018.6 9.2 SW 12.1 0.8 0.8
10:00 15.0 12.5 85 1018.4 8.3 SW 12.1 0.8 0.8
10:01 15.0 12.7 86 1018.5 7.6 SW 12.1 0.0 0.8
10:02 15.0 12.7 86 1018.5 8.3 W 12.1 0.8 0.8
10:03 15.0 12.7 86 1018.4 8.3 SW 12.1 0.8 0.8
10:04 15.0 12.7 86 1018.4 8.3 SW 12.1 0.8 0.8
10:05 15.0 12.7 86 1018.4 6.0 SW 10.7 0.8 0.8
10:06 15.0 12.7 86 1018.3 6.9 SW 9.8 0.8 0.8
10:08 15.0 12.9 87 1018.3 6.9 W 9.2 0.0 0.8
10:09 15.1 13.0 87 1018.4 7.6 SW 8.3 0.0 0.8
10:10 15.1 13.0 87 1018.4 3.8 SW 8.3 0.0 0.8
10:11 15.1 13.0 87 1018.3 4.5 S 8.3 0.0 0.8
10:12 15.1 13.0 87 1018.3 4.5 S 8.3 0.0 0.8
10:13 15.2 13.1 87 1018.3 6.9 SW 8.3 0.0 0.8
10:14 15.2 13.1 87 1018.3 4.5 S 8.3 0.0 0.8
10:15 15.3 13.2 87 1018.3 5.4 S 7.6 0.0 0.8
10:16 15.3 13.2 87 1018.4 4.5 SW 7.6 0.0 0.8
10:17 15.4 13.4 88 1018.3 4.5 SW 7.6 0.0 0.8
10:18 15.5 13.5 88 1018.3 3.8 SW 7.6 0.0 0.8
10:19 15.6 13.8 89 1018.3 4.5 SW 7.6 0.0 0.8
10:20 15.7 13.9 89 1018.2 3.8 S 6.9 0.0 0.8
10:21 15.9 14.1 89 1018.2 3.1 WSW 6.9 0.0 0.8
10:22 15.9 14.1 89 1018.2 2.2 SE 6.9 0.0 0.8
10:24 16.1 14.1 88 1018.2 3.8 SW 5.4 0.0 0.8
10:25 16.1 14.1 88 1018.0 3.8 SE 4.5 0.0 0.8
10:26 16.2 14.0 87 1018.1 4.5 S 4.5 0.0 0.8
10:27 16.3 14.0 86 1018.0 4.5 S 4.5 0.0 0.8
10:28 16.3 13.8 85 1018.1 3.8 SE 4.5 0.0 0.8
10:29 16.4 14.1 86 1018.1 4.5 SE 4.5 0.0 0.8
10:30 16.4 13.9 85 1018.1 3.1 S 4.5 0.0 0.8
10:31 16.5 14.0 85 1017.9 3.8 S 4.5 0.0 0.8
10:32 16.6 14.1 85 1018.0 5.4 S 5.4 0.0 0.8
10:33 16.6 14.1 85 1018.1 6.9 S 6.9 0.0 0.8
10:34 16.7 14.0 84 1018.1 6.0 S 6.9 0.0 0.8
10:35 16.7 14.0 84 1018.1 5.4 S 6.9 0.0 0.8
10:36 16.8 14.3 85 1018.1 6.0 S 6.9 0.0 0.8
10:37 16.8 14.1 84 1018.0 6.0 SW 6.9 0.0 0.8
10:38 16.8 14.1 84 1018.0 6.0 SW 6.9 0.0 0.8
10:39 16.9 14.2 84 1018.0 5.4 SE 6.9 0.0 0.8
10:40 16.9 14.2 84 1018.1 6.0 S 6.9 0.0 0.8
10:41 17.0 14.1 83 1018.0 6.9 SW 6.9 0.0 0.8
10:42 17.0 14.3 84 1018.0 4.5 S 6.9 0.0 0.8
10:43 17.1 14.4 84 1018.0 5.4 SE 6.9 0.0 0.8
10:44 17.2 14.5 84 1018.0 6.9 SE 6.9 0.0 0.8
10:45 17.3 14.6 84 1018.0 4.5 S 6.9 0.0 0.8
10:46 17.4 14.5 83 1018.0 6.9 S 6.9 0.0 0.8
10:47 17.4 14.3 82 1018.1 6.9 S 6.9 0.0 0.8
10:48 17.4 14.3 82 1018.0 6.0 SW 9.2 0.0 0.8
10:49 17.5 14.4 82 1018.1 5.4 S 9.2 0.0 0.8
10:50 17.5 14.2 81 1018.2 4.5 S 9.2 0.0 0.8
10:51 17.5 14.2 81 1018.0 8.3 SW 9.2 0.0 0.8
10:52 17.5 14.2 81 1018.1 8.3 SW 9.2 0.0 0.8
10:53 17.5 14.2 81 1018.1 6.9 S 9.2 0.0 0.8
10:54 17.5 14.2 81 1018.2 7.6 S 9.2 0.0 0.8
10:55 17.5 14.2 81 1018.1 8.3 S 9.2 0.0 0.8
10:57 17.5 14.0 80 1018.2 7.6 SW 9.2 0.0 0.8
10:58 17.5 14.0 80 1018.2 5.4 S 8.3 0.0 0.8
10:59 17.5 14.0 80 1018.1 6.0 S 8.3 0.0 0.8
11:00 17.5 13.8 79 1018.2 7.6 SW 8.3 0.0 0.8
11:01 17.5 13.8 79 1018.1 7.6 SW 8.3 0.0 0.8
11:02 17.6 13.7 78 1018.2 6.0 S 8.3 0.0 0.8
11:03 17.6 13.7 78 1018.3 4.5 SW 8.3 0.0 0.8
11:04 17.6 13.7 78 1018.3 6.9 SW 8.3 0.0 0.8
11:05 17.6 13.7 78 1018.1 6.9 S 7.6 0.0 0.8
11:06 17.6 13.7 78 1018.2 6.0 S 7.6 0.0 0.8
11:07 17.6 13.7 78 1018.2 6.0 S 7.6 0.0 0.8
11:08 17.7 13.6 77 1018.2 9.2 SW 9.8 0.0 0.8
11:09 17.7 13.6 77 1018.1 9.8 SW 9.8 0.0 0.8
11:10 17.7 13.4 76 1018.2 9.8 SW 9.8 0.0 0.8
11:11 17.8 13.5 76 1018.2 7.6 S 9.8 0.0 0.8
11:12 17.8 13.5 76 1018.3 6.9 S 9.8 0.0 0.8
11:13 17.8 13.5 76 1018.2 9.2 NW 9.8 0.0 0.8
11:14 17.8 13.5 76 1018.3 8.3 SW 9.8 0.0 0.8
11:15 17.9 13.4 75 1018.3 6.9 S 9.8 0.0 0.8
11:17 18.0 13.5 75 1018.2 6.9 SW 9.8 0.0 0.8
11:18 18.2 13.7 75 1018.3 7.6 SE 9.8 0.0 0.8
11:19 18.3 14.0 76 1018.3 8.3 S 9.8 0.0 0.8
11:20 18.4 13.9 75 1018.2 9.8 S 9.8 0.0 0.8
11:21 18.5 14.0 75 1018.2 7.6 SW 9.8 0.0 0.8
11:22 18.7 14.0 74 1018.1 10.7 SW 10.7 0.0 0.8
11:23 18.7 14.0 74 1018.1 10.7 SW 10.7 0.0 0.8
11:24 18.8 13.7 72 1017.9 9.8 W 10.7 0.0 0.8
11:25 18.8 13.4 71 1018.1 9.2 SW 10.7 0.0 0.8
11:26 18.8 13.4 71 1018.1 7.6 SW 10.7 0.0 0.8
11:27 18.8 13.7 72 1018.1 8.3 SW 10.7 0.0 0.8
11:28 18.8 13.2 70 1018.0 9.8 SW 10.7 0.0 0.8
11:29 18.8 13.2 70 1018.3 10.7 SW 10.7 0.0 0.8
11:30 18.9 13.3 70 1018.2 7.6 WSW 10.7 0.0 0.8
11:31 18.9 13.5 71 1018.1 6.9 SW 10.7 0.0 0.8
11:32 18.9 13.3 70 1018.2 7.6 SW 10.7 0.0 0.8
11:34 18.9 13.3 70 1018.0 8.3 W 11.4 0.0 0.8
11:35 18.9 13.3 70 1018.0 9.2 SW 11.4 0.0 0.8
11:36 18.9 13.3 70 1018.1 12.1 SW 12.1 0.0 0.8
11:37 18.9 13.3 70 1018.3 9.8 S 12.1 0.0 0.8
11:38 18.9 13.1 69 1018.1 10.7 WNW 12.1 0.0 0.8
11:39 18.9 13.1 69 1018.1 10.7 WNW 12.1 0.0 0.8
11:40 18.9 13.3 70 1018.1 6.9 SW 12.1 0.0 0.8
11:41 18.9 13.5 71 1018.0 7.6 S 12.1 0.0 0.8
11:42 18.9 13.3 70 1018.1 7.6 NW 12.1 0.0 0.8
11:43 19.0 13.4 70 1018.0 9.8 S 12.1 0.0 0.8
11:44 19.1 13.7 71 1018.1 9.2 SW 12.1 0.0 0.8
11:45 19.1 13.7 71 1018.1 11.4 SW 12.1 0.0 0.8
11:46 19.1 13.5 70 1018.0 8.3 SSW 12.1 0.0 0.8
11:47 19.2 13.6 70 1018.0 6.0 W 11.4 0.0 0.8
11:48 19.2 13.6 70 1018.0 8.3 SW 11.4 0.0 0.8
11:50 19.2 13.6 70 1018.0 9.2 SW 15.2 0.0 0.8
11:51 19.2 13.6 70 1017.9 8.3 SW 15.2 0.0 0.8
11:52 19.2 13.4 69 1018.1 10.7 SW 15.2 0.0 0.8
11:53 19.2 13.4 69 1018.0 9.8 W 15.2 0.0 0.8
11:54 19.3 13.7 70 1018.2 8.3 S 15.2 0.0 0.8
11:55 19.3 13.7 70 1018.2 8.3 S 15.2 0.0 0.8
11:56 19.3 13.5 69 1018.1 9.8 SW 15.2 0.0 0.8
11:57 19.3 13.5 69 1018.1 8.3 SW 15.2 0.0 0.8
11:58 19.3 13.5 69 1018.1 9.2 W 15.2 0.0 0.8
11:59 19.2 13.4 69 1018.1 9.2 SW 15.2 0.0 0.8
12:00 19.2 13.4 69 1018.1 9.2 SW 10.7 0.0 0.8
12:01 19.2 13.4 69 1018.0 7.6 SW 10.7 0.0 0.8
12:02 19.1 13.1 68 1018.2 9.8 SSW 10.7 0.0 0.8
12:03 19.1 13.1 68 1018.0 6.0 NNW 9.8 0.0 0.8
12:04 19.1 13.1 68 1018.0 8.3 SW 9.8 0.0 0.8
12:06 19.1 13.1 68 1017.9 6.9 SW 9.8 0.0 0.8
12:07 19.1 13.1 68 1018.0 9.8 SW 9.8 0.0 0.8
12:08 19.2 13.2 68 1017.9 5.4 S 9.8 0.0 0.8
12:09 19.2 13.2 68 1018.0 9.8 SW 9.8 0.0 0.8
12:10 19.2 12.9 67 1018.0 8.3 S 9.8 0.0 0.8
12:11 19.3 13.3 68 1017.9 6.9 W 9.8 0.0 0.8
12:12 19.3 13.3 68 1018.0 7.6 S 9.8 0.0 0.8
12:13 19.4 13.4 68 1018.0 11.4 SW 11.4 0.0 0.8
12:14 19.5 13.4 68 1018.0 8.3 SW 11.4 0.0 0.8
12:15 19.6 13.5 68 1018.1 5.4 SW 11.4 0.0 0.8
12:16 19.7 13.6 68 1018.1 9.2 S 11.4 0.0 0.8
12:17 19.7 13.4 67 1018.0 6.0 S 11.4 0.0 0.8
12:18 19.8 13.5 67 1018.0 6.0 S 11.4 0.0 0.8
12:19 19.9 13.8 68 1018.3 7.6 NNW 11.4 0.0 0.8
12:20 20.0 13.7 67 1018.2 9.8 SW 11.4 0.0 0.8
12:21 20.0 13.5 66 1018.0 8.3 SW 11.4 0.0 0.8
12:22 20.0 13.5 66 1018.2 4.5 SW 11.4 0.0 0.8
12:24 20.0 13.2 65 1018.1 12.1 SW 12.1 0.0 0.8
12:25 19.9 13.1 65 1018.2 7.6 S 12.1 0.0 0.8
12:26 19.9 12.9 64 1018.2 9.8 S 12.1 0.0 0.8
12:27 19.9 12.9 64 1018.2 6.9 SW 12.1 0.0 0.8
12:28 19.8 12.8 64 1018.1 8.3 WSW 12.1 0.0 0.8
12:29 19.8 13.0 65 1018.1 9.2 SW 12.1 0.0 0.8
12:30 19.8 13.0 65 1018.3 9.2 S 12.1 0.0 0.8
12:31 19.8 13.0 65 1018.2 11.4 SW 12.1 0.0 0.8
12:32 19.8 13.0 65 1018.0 7.6 W 12.1 0.0 0.8
12:33 19.8 13.0 65 1018.1 7.6 S 12.1 0.0 0.8
12:34 19.9 12.9 64 1018.0 12.1 S 12.1 0.0 0.8
12:35 19.9 12.9 64 1018.2 12.1 S 12.1 0.0 0.8
12:36 19.9 12.9 64 1018.0 13.0 S 13.0 0.0 0.8
12:37 19.9 12.9 64 1018.1 10.7 S 13.0 0.0 0.8
12:38 19.9 12.9 64 1018.0 13.0 S 13.0 0.0 0.8
12:40 19.8 12.8 64 1018.0 12.1 SW 13.0 0.0 0.8
12:41 19.7 12.5 63 1018.1 13.6 SW 13.6 0.0 0.8
12:42 19.7 12.7 64 1018.2 11.4 S 13.6 0.0 0.8
12:43 19.7 12.7 64 1018.0 9.2 SW 13.6 0.0 0.8
12:44 19.7 12.7 64 1018.2 12.1 S 13.6 0.0 0.8
12:45 19.6 12.6 64 1018.3 13.6 S 13.6 0.0 0.8
12:46 19.6 12.6 64 1018.5 13.0 S 13.6 0.0 0.8
12:47 19.6 12.9 65 1018.3 13.0 S 13.6 0.0 0.8
12:48 19.5 12.8 65 1018.3 14.5 S 14.5 0.0 0.8
12:49 19.5 12.8 65 1018.3 13.6 S 14.5 0.0 0.8
12:50 19.5 12.8 65 1018.2 15.9 S 15.9 0.0 0.8
12:51 19.4 12.7 65 1018.4 13.6 S 15.9 0.0 0.8
12:52 19.3 12.3 64 1018.1 11.4 W 15.9 0.0 0.8
12:53 19.3 12.6 65 1018.2 7.6 SW 15.9 0.0 0.8
12:54 19.2 12.5 65 1018.1 10.7 S 15.9 0.0 0.8
12:55 19.2 12.5 65 1018.3 12.1 SW 15.9 0.0 0.8
12:56 19.2 12.7 66 1018.2 8.3 SW 15.9 0.0 0.8
12:58 19.3 12.8 66 1018.2 12.1 S 15.9 0.0 0.8
12:59 19.3 12.8 66 1018.1 9.2 S 15.9 0.0 0.8
13:00 19.3 13.0 67 1018.1 9.8 S 13.6 0.0 0.8
13:01 19.5 13.0 66 1018.4 14.5 SW 14.5 0.0 0.8
13:02 19.4 12.9 66 1018.4 8.3 SE 14.5 0.0 0.8
13:03 19.4 12.9 66 1018.1 9.8 SW 14.5 0.0 0.8
13:04 19.4 12.9 66 1018.3 9.8 SE 14.5 0.0 0.8
13:05 19.5 12.8 65 1018.2 12.1 SW 16.8 0.0 0.8
13:06 19.4 12.7 65 1018.3 9.2 S 16.8 0.0 0.8
13:07 19.4 12.7 65 1018.3 9.2 S 16.8 0.0 0.8
13:08 19.4 12.7 65 1018.2 7.6 SW 16.8 0.0 0.8
13:09 19.4 12.9 66 1018.1 10.7 WNW 16.8 0.0 0.8
13:10 19.5 13.0 66 1018.2 11.4 S 16.8 0.0 0.8
13:11 19.5 12.8 65 1018.2 13.6 SW 16.8 0.0 0.8
13:12 19.5 12.8 65 1018.1 16.8 SW 16.8 0.0 0.8
13:13 19.6 13.1 66 1018.2 11.4 SW 16.8 0.0 0.8
13:14 19.6 13.1 66 1018.2 9.2 SE 16.8 0.0 0.8
13:15 19.7 13.2 66 1018.2 11.4 S 16.8 0.0 0.8
13:16 19.7 12.9 65 1018.3 11.4 S 16.8 0.0 0.8
13:18 19.7 12.9 65 1018.1 10.7 S 16.8 0.0 0.8
13:19 19.7 13.2 66 1018.0 8.3 S 16.8 0.0 0.8
13:20 19.7 13.2 66 1018.3 9.2 S 16.8 0.0 0.8
13:21 19.7 12.9 65 1018.3 11.4 S 16.8 0.0 0.8
13:22 19.7 12.9 65 1018.3 9.8 SW 15.2 0.0 0.8
13:23 19.7 12.9 65 1018.3 9.8 SW 15.2 0.0 0.8
13:24 19.6 12.9 65 1018.1 8.3 SW 15.2 0.0 0.8
13:25 19.6 12.9 65 1018.1 8.3 SW 15.2 0.0 0.8
13:26 19.6 12.9 65 1018.1 6.0 SW 15.2 0.0 0.8
13:27 19.6 13.1 66 1018.1 12.1 N 15.2 0.0 0.8
13:28 19.5 12.8 65 1018.3 13.0 SW 15.2 0.0 0.8
13:29 19.5 13.0 66 1018.2 12.1 SW 15.2 0.0 0.8
13:30 19.4 12.9 66 1018.0 10.7 SW 15.2 0.0 0.8
13:31 19.3 12.8 66 1018.1 11.4 SW 13.0 0.0 0.8
13:32 19.3 12.8 66 1018.1 12.1 SSW 13.0 0.0 0.8
13:35 19.2 12.7 66 1018.1 8.3 NW 13.0 0.0 0.8
13:36 19.2 12.7 66 1018.1 8.3 NW 13.0 0.0 0.8
13:37 19.2 12.7 66 1018.0 9.8 NW 13.0 0.0 0.8
13:38 19.2 12.9 67 1018.0 8.3 SW 12.1 0.0 0.8
13:39 19.2 12.9 67 1018.1 9.8 SW 12.1 0.0 0.8
13:40 19.2 12.9 67 1018.1 9.8 SW 12.1 0.0 0.8
13:41 19.2 13.2 68 1017.9 9.2 W 12.1 0.0 0.8
13:42 19.2 12.9 67 1018.1 6.9 SW 12.1 0.0 0.8
13:43 19.3 13.0 67 1018.0 12.1 S 12.1 0.0 0.8
13:44 19.3 12.8 66 1018.0 11.4 W 12.1 0.0 0.8
13:45 19.3 12.8 66 1017.9 6.0 SW 12.1 0.0 0.8
13:46 19.3 12.8 66 1018.1 9.8 N 12.1 0.0 0.8
13:47 19.4 12.7 65 1018.0 10.7 W 12.1 0.0 0.8
13:48 19.4 12.9 66 1018.1 9.8 SW 12.1 0.0 0.8
13:49 19.4 12.7 65 1018.2 9.2 S 12.1 0.0 0.8
13:50 19.4 12.7 65 1018.1 6.9 S 12.1 0.0 0.8
13:52 19.4 12.9 66 1018.1 14.5 SSW 14.5 0.0 0.8
13:53 19.4 12.4 64 1018.1 9.8 SW 14.5 0.0 0.8
13:54 19.3 12.3 64 1018.1 9.2 S 14.5 0.0 0.8
13:55 19.3 12.6 65 1018.2 6.0 SW 14.5 0.0 0.8
13:56 19.3 12.6 65 1018.1 7.6 SW 14.5 0.0 0.8
13:57 19.3 12.6 65 1018.1 9.8 S 14.5 0.0 0.8
13:58 19.3 12.6 65 1018.1 13.0 S 14.5 0.0 0.8
13:59 19.4 12.7 65 1018.3 10.7 S 14.5 0.0 0.8
14:00 19.5 13.0 66 1018.3 6.9 S 14.5 0.0 0.8
14:01 19.5 13.0 66 1018.2 6.9 S 14.5 0.0 0.8
14:02 19.6 12.9 65 1018.1 10.7 S 14.5 0.0 0.8
14:03 19.6 12.6 64 1018.1 10.7 SW 13.0 0.0 0.8
14:04 19.6 12.6 64 1018.2 7.6 SE 13.0 0.0 0.8
14:05 19.6 12.6 64 1018.1 10.7 S 13.0 0.0 0.8
14:06 19.6 12.6 64 1018.1 14.5 S 14.5 0.0 0.8
14:07 19.6 12.6 64 1018.0 13.0 S 14.5 0.0 0.8
14:09 19.7 12.9 65 1018.1 7.6 S 14.5 0.0 0.8
14:10 19.8 13.0 65 1018.2 12.1 SW 14.5 0.0 0.8
14:11 19.8 12.8 64 1018.0 14.5 SW 14.5 0.0 0.8
14:12 19.9 12.9 64 1018.1 12.1 S 14.5 0.0 0.8
14:13 19.9 12.9 64 1018.1 10.7 S 14.5 0.0 0.8
14:14 19.9 12.9 64 1018.1 10.7 S 14.5 0.0 0.8
14:15 19.9 12.9 64 1018.2 11.4 SW 14.5 0.0 0.8
14:16 19.9 12.9 64 1017.9 9.2 N 14.5 0.0 0.8
14:17 20.0 13.0 64 1018.1 7.6 SW 14.5 0.0 0.8
14:18 20.0 13.0 64 1018.2 9.2 SW 14.5 0.0 0.8
14:19 20.0 13.0 64 1018.0 9.2 SW 14.5 0.0 0.8
14:20 20.1 13.3 65 1018.1 8.3 S 14.5 0.0 0.8
14:21 20.1 13.1 64 1018.1 7.6 SW 14.5 0.0 0.8
14:22 20.2 13.2 64 1018.2 13.0 S 13.0 0.0 0.8
14:23 20.2 12.9 63 1018.1 10.7 S 13.0 0.0 0.8
14:24 20.2 13.2 64 1018.2 10.7 S 13.0 0.0 0.8
14:26 20.2 13.2 64 1018.2 10.7 SW 13.0 0.0 0.8
14:27 20.2 12.9 63 1018.1 13.6 SW 13.6 0.0 0.8
14:28 20.1 12.6 62 1018.1 13.6 SW 13.6 0.0 0.8
14:29 20.1 12.8 63 1018.2 9.8 SW 13.6 0.0 0.8
14:30 20.1 12.8 63 1018.2 9.8 SW 13.6 0.0 0.8
14:31 20.1 12.8 63 1018.0 11.4 SW 13.6 0.0 0.8
14:32 20.1 12.8 63 1018.1 9.2 SW 13.6 0.0 0.8
14:33 20.1 12.8 63 1018.1 8.3 S 13.6 0.0 0.8
14:34 20.1 13.1 64 1018.1 9.8 SW 13.6 0.0 0.8
14:35 20.1 13.1 64 1018.0 12.1 SW 13.6 0.0 0.8
14:36 20.2 13.2 64 1018.0 11.4 E 13.6 0.0 0.8
14:37 20.2 13.2 64 1018.1 9.8 S 13.6 0.0 0.8
14:38 20.2 13.2 64 1018.1 9.2 SW 13.6 0.0 0.8
14:39 20.2 13.2 64 1018.1 10.7 SSE 12.1 0.0 0.8
14:40 20.2 12.9 63 1018.0 10.7 S 12.1 0.0 0.8
14:41 20.1 12.8 63 1018.2 16.8 SW 16.8 0.0 0.8
14:43 20.0 12.8 63 1018.0 13.0 SW 16.8 0.0 0.8
14:44 20.0 12.8 63 1018.1 8.3 S 16.8 0.0 0.8
14:45 19.8 12.6 63 1018.1 13.0 SE 16.8 0.0 0.8
14:46 19.8 12.6 63 1018.0 15.2 WSW 16.8 0.0 0.8
14:47 19.8 12.6 63 1018.0 14.5 SW 16.8 0.0 0.8
14:48 19.8 12.6 63 1018.1 11.4 WNW 16.8 0.0 0.8
14:49 19.8 12.8 64 1018.0 12.1 SW 16.8 0.0 0.8
14:50 19.9 13.1 65 1018.1 15.2 S 16.8 0.0 0.8
14:51 20.0 13.5 66 1018.0 13.0 S 16.8 0.0 0.8
14:52 20.2 13.7 66 1018.1 12.1 SW 15.2 0.0 0.8
14:53 20.2 13.2 64 1018.2 14.5 SW 15.2 0.0 0.8
14:54 20.3 13.3 64 1018.1 12.1 SW 15.2 0.0 0.8
14:55 20.5 13.2 63 1018.0 12.1 SE 15.2 0.0 0.8
14:56 20.6 13.6 64 1018.1 8.3 S 15.2 0.0 0.8
14:57 20.9 13.4 62 1018.0 13.0 SW 15.2 0.0 0.8
14:58 20.9 13.4 62 1018.0 10.7 SW 15.2 0.0 0.8
14:59 20.9 13.4 62 1018.0 9.8 S 15.2 0.0 0.8
15:01 21.0 13.7 63 1017.9 13.6 SE 14.5 0.0 0.8
15:02 21.1 13.8 63 1018.0 10.7 SW 14.5 0.0 0.8
15:03 21.0 13.5 62 1018.0 10.7 SW 13.6 0.0 0.8
15:04 21.0 13.5 62 1017.9 19.7 S 19.7 0.0 0.8
15:05 21.0 13.0 60 1018.0 13.6 SW 19.7 0.0 0.8
15:07 20.9 12.9 60 1018.0 11.4 SW 19.7 0.0 0.8
15:08 20.9 12.6 59 1017.9 11.4 SW 19.7 0.0 0.8
15:09 20.8 13.0 61 1017.9 10.7 SW 19.7 0.0 0.8
15:10 20.9 13.1 61 1017.9 10.7 S 19.7 0.0 0.8
15:11 20.8 13.0 61 1017.9 9.2 SE 19.7 0.0 0.8
15:12 20.9 13.4 62 1017.9 12.1 SSW 19.7 0.0 0.8
15:13 20.9 13.4 62 1017.9 14.5 S 19.7 0.0 0.8
15:14 20.9 13.4 62 1018.0 13.6 SW 19.7 0.0 0.8
15:15 21.0 13.2 61 1017.9 13.0 SW 16.8 0.0 0.8
15:16 21.0 13.2 61 1018.1 15.9 SW 15.9 0.0 0.8
15:17 21.0 13.2 61 1018.1 14.5 S 15.9 0.0 0.8
15:18 21.0 13.2 61 1018.1 12.1 SW 15.9 0.0 0.8
15:19 20.8 13.0 61 1018.2 10.7 SW 15.9 0.0 0.8
15:20 20.8 13.0 61 1018.1 11.4 SE 15.9 0.0 0.8
15:21 20.7 12.9 61 1017.8 9.8 SW 15.9 0.0 0.8
15:22 20.6 12.8 61 1018.0 9.8 NW 15.9 0.0 0.8
15:24 20.5 12.7 61 1018.2 11.4 S 15.9 0.0 0.8
15:25 20.4 12.6 61 1018.1 10.7 S 15.9 0.0 0.8
15:26 20.2 12.5 61 1017.9 13.6 S 14.5 0.0 0.8
15:27 20.1 12.6 62 1018.0 11.4 SE 13.6 0.0 0.8
15:28 20.1 12.6 62 1018.2 12.1 ESE 13.6 0.0 0.8
15:29 20.0 12.5 62 1018.0 13.0 WSW 13.6 0.0 0.8
15:30 19.9 12.4 62 1018.0 9.8 S 13.6 0.0 0.8
15:31 19.8 12.6 63 1018.0 10.7 S 13.6 0.0 0.8
15:32 19.8 12.6 63 1018.1 12.1 S 13.6 0.0 0.8
15:33 19.7 12.5 63 1018.1 12.1 S 13.6 0.0 0.8
15:34 19.7 12.5 63 1018.0 9.8 S 13.6 0.0 0.8
15:35 19.7 12.5 63 1018.0 12.1 S 13.6 0.0 0.8
15:36 19.6 12.6 64 1018.1 13.0 S 13.6 0.0 0.8
15:37 19.5 12.5 64 1018.0 9.2 S 13.0 0.0 0.8
15:38 19.5 12.5 64 1018.1 14.5 S 14.5 0.0 0.8
15:39 19.5 12.5 64 1018.0 11.4 S 14.5 0.0 0.8
15:40 19.4 12.4 64 1017.9 8.3 SW 14.5 0.0 0.8
15:42 19.4 12.7 65 1018.0 11.4 NW 14.5 0.0 0.8
15:43 19.4 12.7 65 1017.9 13.0 SE 14.5 0.0 0.8
15:44 19.4 12.7 65 1018.1 8.3 SE 14.5 0.0 0.8
15:45 19.4 12.7 65 1017.9 6.9 SW 14.5 0.0 0.8
15:46 19.4 12.7 65 1017.9 6.9 SW 14.5 0.0 0.8
15:47 19.5 12.8 65 1017.9 10.7 SW 14.5 0.0 0.8
15:48 19.5 12.8 65 1017.9 9.2 S 14.5 0.0 0.8
15:49 19.5 12.8 65 1017.8 9.8 SW 13.0 0.0 0.8
15:50 19.5 12.8 65 1018.0 11.4 SW 13.0 0.0 0.8
15:51 19.5 12.8 65 1018.0 11.4 S 13.0 0.0 0.8
15:52 19.5 12.8 65 1018.0 6.9 SW 13.0 0.0 0.8
15:53 19.5 12.8 65 1018.0 6.0 SW 13.0 0.0 0.8
15:54 19.5 12.8 65 1018.0 7.6 S 11.4 0.0 0.8
15:55 19.5 13.0 66 1018.0 13.0 SW 13.0 0.0 0.8
15:56 19.5 12.8 65 1017.9 13.6 SW 15.2 0.0 0.8
15:57 19.4 12.7 65 1018.0 13.0 S 15.2 0.0 0.8
15:58 19.5 12.8 65 1018.0 9.8 S 15.2 0.0 0.8
16:00 19.4 12.7 65 1017.9 8.3 S 15.2 0.0 0.8
16:01 19.3 12.6 65 1017.9 10.7 SE 15.2 0.0 0.8
16:02 19.5 12.8 65 1018.0 13.0 SW 15.2 0.0 0.8
16:03 19.3 12.6 65 1017.9 12.1 SSW 15.2 0.0 0.8
16:04 19.3 12.6 65 1018.0 10.7 SE 15.2 0.0 0.8
16:05 19.3 12.8 66 1017.9 10.7 SSW 15.2 0.0 0.8
16:06 19.3 12.8 66 1018.0 9.8 S 15.2 0.0 0.8
16:07 19.3 12.8 66 1018.0 11.4 S 13.6 0.0 0.8
16:08 19.3 12.6 65 1017.9 13.6 SW 13.6 0.0 0.8
16:09 19.3 12.8 66 1017.9 8.3 S 13.6 0.0 0.8
16:10 19.3 12.8 66 1017.8 12.1 WSW 13.6 0.0 0.8
16:11 19.3 12.8 66 1017.9 13.0 S 13.6 0.0 0.8
16:12 19.3 12.8 66 1017.9 11.4 SW 13.6 0.0 0.8
16:13 19.3 12.8 66 1018.0 12.1 S 13.6 0.0 0.8
16:14 19.3 12.8 66 1018.1 13.0 S 13.6 0.0 0.8
16:15 19.3 12.8 66 1018.0 9.8 SW 13.6 0.0 0.8
16:17 19.2 12.7 66 1017.8 8.3 WSW 13.6 0.0 0.8
16:18 19.2 12.7 66 1017.8 9.2 WNW 13.0 0.0 0.8
16:19 19.2 12.5 65 1018.0 10.7 E 13.0 0.0 0.8
16:20 19.2 12.5 65 1017.8 9.8 S 13.0 0.0 0.8
16:21 19.2 12.5 65 1018.0 11.4 S 13.0 0.0 0.8
16:22 19.2 12.5 65 1018.0 11.4 S 13.0 0.0 0.8
16:23 19.1 12.1 64 1017.9 9.8 S 13.0 0.0 0.8
16:24 19.1 12.1 64 1017.8 9.8 SE 13.0 0.0 0.8
16:25 19.1 12.1 64 1017.8 9.8 SW 11.4 0.0 0.8
16:26 19.1 12.1 64 1017.8 12.1 S 12.1 0.0 0.8
16:27 19.2 12.5 65 1017.9 10.7 SW 12.1 0.0 0.8
16:28 19.2 12.2 64 1017.8 13.0 S 13.0 0.0 0.8
16:29 19.2 12.2 64 1017.7 10.7 SE 13.0 0.0 0.8
16:30 19.2 12.2 64 1017.7 11.4 S 13.0 0.0 0.8
16:31 19.2 12.2 64 1017.8 10.7 SW 13.0 0.0 0.8
16:32 19.2 12.2 64 1017.8 9.8 S 13.0 0.0 0.8
16:33 19.2 12.2 64 1017.8 9.2 SW 13.0 0.0 0.8
16:34 19.3 12.3 64 1018.1 10.7 S 13.0 0.0 0.8
16:36 19.3 12.1 63 1017.9 10.7 S 13.0 0.0 0.8
16:37 19.3 12.1 63 1017.9 11.4 SE 13.0 0.0 0.8
16:38 19.4 12.2 63 1017.9 13.0 S 13.0 0.0 0.8
16:39 19.4 12.2 63 1017.9 13.0 S 13.0 0.0 0.8
16:40 19.3 11.8 62 1017.9 9.8 S 13.0 0.0 0.8
16:41 19.4 11.9 62 1017.9 9.2 SE 13.0 0.0 0.8
16:42 19.4 12.2 63 1017.8 13.0 SW 13.0 0.0 0.8
16:43 19.4 12.2 63 1017.8 11.4 S 13.0 0.0 0.8
16:44 19.4 12.2 63 1017.7 9.2 SW 13.0 0.0 0.8
16:45 19.4 12.2 63 1017.7 13.0 SW 13.0 0.0 0.8
16:46 19.4 12.2 63 1017.9 12.1 S 13.0 0.0 0.8
16:47 19.4 12.2 63 1017.9 8.3 SW 13.0 0.0 0.8
16:48 19.3 12.1 63 1017.8 13.6 SW 14.5 0.0 0.8
16:49 19.3 12.1 63 1017.8 12.1 SW 14.5 0.0 0.8
16:50 19.3 12.1 63 1018.0 9.2 S 14.5 0.0 0.8
16:51 19.3 12.3 64 1017.9 9.2 S 14.5 0.0 0.8
16:52 19.3 12.1 63 1017.8 12.1 S 14.5 0.0 0.8
16:54 19.4 12.4 64 1017.9 12.1 S 14.5 0.0 0.8
16:55 19.4 12.4 64 1018.0 11.4 S 14.5 0.0 0.8
16:56 19.4 12.4 64 1017.9 11.4 SSW 14.5 0.0 0.8
16:57 19.4 12.4 64 1017.7 7.6 SW 14.5 0.0 0.8
16:58 19.4 12.4 64 1017.7 7.6 SW 13.6 0.0 0.8
16:59 19.4 12.4 64 1017.9 12.1 WNW 12.1 0.0 0.8
17:00 19.4 12.4 64 1017.9 12.1 WNW 12.1 0.0 0.8
17:01 19.4 12.4 64 1017.8 13.0 E 13.0 0.0 0.8
17:02 19.4 12.2 63 1017.8 10.7 SSE 13.0 0.0 0.8
17:03 19.4 12.2 63 1017.8 10.7 SW 13.0 0.0 0.8
17:04 19.4 12.4 64 1017.8 7.6 SW 13.0 0.0 0.8
17:05 19.4 12.4 64 1017.9 8.3 SW 13.0 0.0 0.8
17:06 19.4 12.4 64 1017.7 7.6 SW 13.0 0.0 0.8
17:07 19.3 12.3 64 1017.9 8.3 SSW 13.0 0.0 0.8
17:08 19.3 12.3 64 1017.9 11.4 SW 13.0 0.0 0.8
17:09 19.3 12.3 64 1017.9 8.3 SE 13.0 0.0 0.8
17:10 19.3 12.3 64 1017.9 12.1 S 13.0 0.0 0.8
17:11 19.3 12.3 64 1017.9 12.1 SW 14.5 0.0 0.8
17:12 19.2 12.5 65 1017.7 9.2 SSW 14.5 0.0 0.8
17:13 19.1 12.4 65 1017.8 9.8 WSW 14.5 0.0 0.8
17:14 19.1 12.4 65 1017.9 9.2 SW 14.5 0.0 0.8
17:15 19.1 12.4 65 1017.8 8.3 SW 14.5 0.0 0.8
17:17 18.9 12.4 66 1017.9 9.2 SW 14.5 0.0 0.8
17:18 18.9 12.4 66 1017.9 6.9 S 14.5 0.0 0.8
17:19 18.8 12.3 66 1017.9 10.7 S 14.5 0.0 0.8
17:20 18.8 12.3 66 1018.0 9.2 S 14.5 0.0 0.8
17:21 18.8 12.3 66 1017.9 9.8 SE 12.1 0.0 0.8
17:22 18.7 12.2 66 1017.9 8.3 S 10.7 0.0 0.8
17:23 18.6 12.1 66 1017.9 11.4 S 11.4 0.0 0.8
17:24 18.6 12.1 66 1017.9 8.3 SE 11.4 0.0 0.8
17:25 18.6 12.1 66 1017.8 9.8 S 11.4 0.0 0.8
17:26 18.5 12.0 66 1017.8 9.8 S 11.4 0.0 0.8
17:27 18.4 11.9 66 1017.7 9.8 SW 11.4 0.0 0.8
17:28 18.4 11.9 66 1017.7 6.0 SW 11.4 0.0 0.8
17:29 18.4 12.2 67 1017.9 9.8 SW 11.4 0.0 0.8
17:30 18.4 12.2 67 1018.0 9.8 SSW 11.4 0.0 0.8
17:31 18.4 12.2 67 1017.8 9.8 S 11.4 0.0 0.8
17:32 18.4 12.2 67 1017.8 9.8 S 11.4 0.0 0.8
17:33 18.5 12.3 67 1017.7 9.8 WSW 11.4 0.0 0.8
17:34 18.5 12.3 67 1017.9 9.8 S 9.8 0.0 0.8
17:35 18.5 12.0 66 1017.8 6.9 SW 9.8 0.0 0.8
17:37 18.7 12.0 65 1017.9 8.3 W 10.7 0.0 0.8
17:38 18.8 12.3 66 1017.8 7.6 W 10.7 0.0 0.8
17:39 18.8 12.1 65 1017.8 9.8 S 10.7 0.0 0.8
17:40 18.9 12.2 65 1017.8 8.3 SE 10.7 0.0 0.8
17:41 19.0 12.3 65 1017.7 8.3 SE 10.7 0.0 0.8
17:42 19.1 12.4 65 1017.8 9.8 SW 10.7 0.0 0.8
17:43 19.2 12.5 65 1017.7 6.0 SW 10.7 0.0 0.8
17:44 19.3 12.6 65 1017.8 8.3 SW 10.7 0.0 0.8
17:45 19.3 12.6 65 1017.8 7.6 S 10.7 0.0 0.8
17:46 19.4 12.4 64 1017.8 9.8 S 10.7 0.0 0.8
17:47 19.5 12.3 63 1017.8 9.8 SW 9.8 0.0 0.8
17:48 19.6 12.4 63 1017.8 10.7 SW 10.7 0.0 0.8
17:49 19.6 12.1 62 1017.8 9.2 S 10.7 0.0 0.8
17:50 19.7 12.0 61 1017.8 9.2 SW 12.1 0.0 0.8
17:51 19.7 12.2 62 1017.8 10.7 SW 12.1 0.0 0.8
17:52 19.7 12.0 61 1017.7 9.2 S 12.1 0.0 0.8
17:53 19.8 12.1 61 1017.8 10.7 S 12.1 0.0 0.8
17:54 19.8 12.1 61 1017.8 9.8 SW 12.1 0.0 0.8
17:56 19.8 12.1 61 1017.8 9.8 SW 12.1 0.0 0.8
17:57 19.7 12.0 61 1017.8 11.4 SSW 12.1 0.0 0.8
17:58 19.7 12.0 61 1017.8 10.7 S 12.1 0.0 0.8
17:59 19.7 12.0 61 1017.8 9.2 S 12.1 0.0 0.8
18:00 19.6 11.9 61 1017.8 9.8 S 12.1 0.0 0.8
18:01 19.6 11.9 61 1017.7 9.8 S 12.1 0.0 0.8
18:02 19.6 11.9 61 1017.7 7.6 SSE 12.1 0.0 0.8
18:03 19.5 12.0 62 1017.8 12.1 S 12.1 0.0 0.8
18:04 19.5 12.0 62 1017.7 9.8 SE 12.1 0.0 0.8
18:05 19.4 12.2 63 1017.8 9.8 SE 12.1 0.0 0.8
18:06 19.4 12.2 63 1017.7 9.8 S 12.1 0.0 0.8
18:07 19.4 12.2 63 1017.7 10.7 S 12.1 0.0 0.8
18:08 19.3 12.1 63 1017.7 9.2 SW 12.1 0.0 0.8
18:09 19.3 12.3 64 1017.8 8.3 SW 12.1 0.0 0.8
18:10 19.2 12.2 64 1017.8 10.7 SW 12.1 0.0 0.8
18:11 19.2 12.2 64 1017.8 9.2 SW 12.1 0.0 0.8
18:12 19.2 12.2 64 1017.8 9.8 SW 12.1 0.0 0.8
18:13 19.1 12.1 64 1017.8 8.3 S 10.7 0.0 0.8
18:15 19.1 12.1 64 1017.7 9.2 S 10.7 0.0 0.8
18:16 19.1 12.4 65 1017.7 8.3 SW 10.7 0.0 0.8
18:17 19.0 12.3 65 1017.7 8.3 S 10.7 0.0 0.8
18:18 19.0 12.3 65 1017.7 8.3 S 10.7 0.0 0.8
18:19 19.0 12.3 65 1017.7 8.3 S 10.7 0.0 0.8
18:20 19.0 12.3 65 1017.5 6.0 S 10.7 0.0 0.8
18:21 19.0 12.3 65 1017.7 6.9 SW 9.8 0.0 0.8
18:22 18.9 12.2 65 1017.5 6.9 SW 9.8 0.0 0.8
18:23 18.9 12.2 65 1017.7 8.3 S 9.8 0.0 0.8
18:24 18.9 12.2 65 1017.7 6.9 SW 9.2 0.0 0.8
18:25 18.9 12.2 65 1017.6 8.3 SE 9.2 0.0 0.8
18:26 18.9 12.4 66 1017.6 8.3 SW 9.2 0.0 0.8
18:27 18.9 12.4 66 1017.5 5.4 SE 9.2 0.0 0.8
18:28 18.9 12.4 66 1017.8 6.0 S 8.3 0.0 0.8
18:30 18.8 12.3 66 1017.6 8.3 SW 8.3 0.0 0.8
18:31 18.8 12.3 66 1017.5 9.2 S 9.2 0.0 0.8
18:32 18.8 12.6 67 1017.8 9.8 WSW 9.8 0.0 0.8
18:33 18.8 12.6 67 1017.7 7.6 SW 9.8 0.0 0.8
18:35 18.7 12.5 67 1017.8 7.6 S 9.8 0.0 0.8
18:36 18.7 12.5 67 1017.8 7.6 S 9.8 0.0 0.8
18:37 18.6 12.4 67 1017.8 6.0 S 9.8 0.0 0.8
18:38 18.6 12.4 67 1017.7 7.6 S 9.8 0.0 0.8
18:39 18.5 12.3 67 1017.7 9.2 SSW 9.8 0.0 0.8
18:40 18.5 12.3 67 1017.8 8.3 S 9.8 0.0 0.8
18:41 18.5 12.5 68 1017.7 8.3 W 9.8 0.0 0.8
18:42 18.4 12.4 68 1017.7 6.9 SW 9.2 0.0 0.8
18:43 18.4 12.4 68 1017.8 9.8 SW 9.8 0.0 0.8
18:44 18.4 12.4 68 1017.8 9.2 S 9.8 0.0 0.8
18:45 18.4 12.4 68 1017.8 7.6 S 9.8 0.0 0.8
18:46 18.4 12.4 68 1017.9 7.6 SE 9.8 0.0 0.8
18:47 18.3 12.3 68 1017.8 9.2 S 9.8 0.0 0.8
18:48 18.3 12.3 68 1017.8 7.6 SE 9.8 0.0 0.8
18:49 18.3 12.3 68 1017.8 7.6 SE 9.8 0.0 0.8
18:50 18.3 12.3 68 1017.7 7.6 S 9.8 0.0 0.8
18:51 18.2 12.2 68 1017.8 9.2 SW 9.8 0.0 0.8
18:52 18.2 12.2 68 1017.8 7.6 S 9.8 0.0 0.8
18:53 18.2 12.2 68 1017.8 6.0 S 9.8 0.0 0.8
18:55 18.2 12.4 69 1017.8 9.8 SW 9.8 0.0 0.8
18:56 18.2 12.4 69 1017.7 10.7 SW 10.7 0.0 0.8
18:57 18.1 12.1 68 1017.7 9.8 SW 10.7 0.0 0.8
18:58 18.1 12.1 68 1017.8 8.3 SW 10.7 0.0 0.8
18:59 18.1 12.1 68 1017.8 8.3 SW 10.7 0.0 0.8
19:00 18.2 12.2 68 1017.7 9.2 SW 10.7 0.0 0.8
19:01 18.2 12.2 68 1017.7 9.2 SW 10.7 0.0 0.8
19:02 18.1 12.1 68 1017.8 9.2 SW 10.7 0.0 0.8
19:03 18.2 12.2 68 1017.8 9.2 S 10.7 0.0 0.8
19:04 18.2 12.2 68 1017.8 9.8 S 10.7 0.0 0.8
19:05 18.2 12.2 68 1017.8 7.6 S 10.7 0.0 0.8
19:06 18.2 12.2 68 1017.8 8.3 SW 10.7 0.0 0.8
19:07 18.2 12.2 68 1017.8 9.8 SW 9.8 0.0 0.8
19:08 18.2 12.2 68 1017.8 8.3 SW 9.8 0.0 0.8
19:09 18.2 12.2 68 1017.8 8.3 SSW 9.8 0.0 0.8
19:10 18.3 12.3 68 1017.9 7.6 SW 9.8 0.0 0.8
19:11 18.3 12.3 68 1017.7 9.2 SW 9.8 0.0 0.8
19:12 18.3 12.3 68 1017.7 7.6 S 9.8 0.0 0.8
19:13 18.3 12.3 68 1017.8 10.7 SSW 10.7 0.0 0.8
19:14 18.3 12.3 68 1017.9 11.4 S 11.4 0.0 0.8
19:15 18.3 12.1 67 1017.9 8.3 SW 11.4 0.0 0.8
19:16 18.3 12.1 67 1017.7 8.3 SW 11.4 0.0 0.8
19:17 18.3 12.1 67 1017.7 6.0 SW 11.4 0.0 0.8
19:18 18.3 12.3 68 1017.7 7.6 S 11.4 0.0 0.8
19:20 18.3 12.1 67 1017.8 11.4 SW 11.4 0.0 0.8
19:21 18.3 12.1 67 1017.9 9.2 S 11.4 0.0 0.8
19:22 18.4 12.2 67 1017.8 8.3 SW 11.4 0.0 0.8
19:23 18.4 12.2 67 1017.8 11.4 S 11.4 0.0 0.8
19:24 18.4 12.2 67 1017.9 9.8 SW 11.4 0.0 0.8
19:25 18.4 12.2 67 1017.9 10.7 S 11.4 0.0 0.8
19:26 18.3 12.1 67 1017.9 9.2 SW 11.4 0.0 0.8
19:27 18.3 12.1 67 1017.7 8.3 S 11.4 0.0 0.8
19:28 18.3 12.1 67 1017.8 6.0 SW 11.4 0.0 0.8
19:29 18.3 12.1 67 1017.8 10.7 SW 11.4 0.0 0.8
19:30 18.3 12.1 67 1017.8 9.2 S 11.4 0.0 0.8
19:31 18.2 12.0 67 1017.8 7.6 SW 11.4 0.0 0.8
19:32 18.2 12.0 67 1017.8 7.6 SW 11.4 0.0 0.8
19:33 18.2 12.0 67 1017.8 9.2 SW 11.4 0.0 0.8
19:34 18.1 11.9 67 1018.0 7.6 SW 10.7 0.0 0.8
19:35 18.1 11.9 67 1017.7 6.9 S 10.7 0.0 0.8
19:36 18.1 11.9 67 1017.8 6.0 WNW 10.7 0.0 0.8
19:37 18.1 11.9 67 1017.7 6.9 SW 10.7 0.0 0.8
19:39 18.1 11.9 67 1017.8 4.5 SW 10.7 0.0 0.8
19:40 18.0 11.8 67 1017.8 9.2 S 9.8 0.0 0.8
19:41 18.0 11.8 67 1017.8 7.6 SW 9.8 0.0 0.8
19:42 18.0 11.8 67 1017.8 6.9 S 9.8 0.0 0.8
19:43 17.9 11.9 68 1017.8 6.0 S 9.2 0.0 0.8
19:44 17.9 11.9 68 1017.7 8.3 S 9.2 0.0 0.8
19:45 17.8 11.8 68 1017.8 10.7 SW 10.7 0.0 0.8
19:46 17.9 11.9 68 1017.9 8.3 SW 10.7 0.0 0.8
19:47 17.8 11.8 68 1017.7 6.0 S 10.7 0.0 0.8
19:48 17.8 11.8 68 1017.9 5.4 SW 10.7 0.0 0.8
19:49 17.8 11.8 68 1017.8 8.3 SW 10.7 0.0 0.8
19:50 17.7 11.7 68 1017.9 7.6 S 10.7 0.0 0.8
19:51 17.7 11.9 69 1017.8 6.0 S 10.7 0.0 0.8
19:52 17.7 11.9 69 1017.8 7.6 S 10.7 0.0 0.8
19:53 17.7 11.9 69 1017.9 6.9 S 10.7 0.0 0.8
19:54 17.7 11.9 69 1017.9 7.6 SW 10.7 0.0 0.8
19:55 17.7 11.9 69 1018.0 5.4 S 10.7 0.0 0.8
19:56 17.6 11.9 69 1017.9 4.5 SW 8.3 0.0 0.8
19:58 17.6 12.1 70 1017.8 4.5 SW 8.3 0.0 0.8
19:59 17.6 12.1 70 1017.8 3.8 SW 8.3 0.0 0.8
20:00 17.6 12.1 70 1017.8 4.5 SW 7.6 0.0 0.8
20:01 17.6 12.1 70 1017.9 4.5 SW 7.6 0.0 0.8
20:02 17.6 12.1 70 1017.9 6.0 SW 7.6 0.0 0.8
20:03 17.6 12.1 70 1017.9 6.9 SW 7.6 0.0 0.8
20:04 17.6 12.1 70 1017.9 6.0 S 7.6 0.0 0.8
20:05 17.6 12.1 70 1017.9 6.0 S 7.6 0.0 0.8
20:06 17.6 12.1 70 1017.8 7.6 S 7.6 0.0 0.8
20:07 17.6 12.3 71 1017.9 6.9 SE 7.6 0.0 0.8
20:08 17.5 12.2 71 1017.9 5.4 S 7.6 0.0 0.8
20:09 17.5 12.2 71 1018.1 5.4 S 7.6 0.0 0.8
20:10 17.5 12.2 71 1017.9 5.4 S 7.6 0.0 0.8
20:11 17.5 12.2 71 1018.0 3.8 SW 7.6 0.0 0.8
20:12 17.5 12.2 71 1018.0 6.0 S 7.6 0.0 0.8
20:13 17.5 12.2 71 1018.1 5.4 S 7.6 0.0 0.8
20:14 17.5 12.2 71 1017.9 3.8 S 7.6 0.0 0.8
20:15 17.5 12.2 71 1018.0 4.5 SE 7.6 0.0 0.8
20:16 17.5 12.2 71 1017.9 4.5 S 7.6 0.0 0.8
20:18 17.5 12.4 72 1017.9 6.0 S 7.6 0.0 0.8
20:19 17.4 12.3 72 1018.0 5.4 S 7.6 0.0 0.8
20:20 17.4 12.3 72 1018.1 4.5 SW 7.6 0.0 0.8
20:21 17.4 12.3 72 1018.0 3.8 S 7.6 0.0 0.8
20:22 17.4 12.3 72 1018.1 5.4 S 7.6 0.0 0.8
20:23 17.3 12.2 72 1017.9 9.2 SW 9.2 0.0 0.8
20:24 17.4 12.3 72 1018.0 6.0 SW 9.2 0.0 0.8
20:25 17.4 12.3 72 1017.9 6.9 SW 9.2 0.0 0.8
20:26 17.4 12.5 73 1018.0 7.6 SW 9.2 0.0 0.8
20:27 17.4 12.5 73 1018.1 6.0 SW 9.2 0.0 0.8
20:28 17.3 12.4 73 1018.0 5.4 WNW 9.2 0.0 0.8
20:29 17.3 12.4 73 1017.9 8.3 SW 9.2 0.0 0.8
20:30 17.4 12.5 73 1017.8 6.9 SW 9.2 0.0 0.8
20:31 17.4 12.5 73 1017.9 8.3 SW 9.2 0.0 0.8
20:32 17.3 12.4 73 1017.9 7.6 S 9.2 0.0 0.8
20:33 17.4 12.5 73 1017.9 6.9 S 9.2 0.0 0.8
20:34 17.4 12.5 73 1018.0 7.6 WSW 8.3 0.0 0.8
20:36 17.3 12.4 73 1017.9 8.3 SW 8.3 0.0 0.8
20:37 17.4 12.5 73 1017.9 6.9 S 8.3 0.0 0.8
20:38 17.3 12.6 74 1017.9 5.4 SW 8.3 0.0 0.8
20:39 17.3 12.6 74 1017.9 5.4 S 8.3 0.0 0.8
20:40 17.3 12.6 74 1017.9 7.6 S 9.2 0.0 0.8
20:41 17.3 12.6 74 1018.0 7.6 SW 9.2 0.0 0.8
20:42 17.3 12.6 74 1018.0 7.6 S 9.2 0.0 0.8
20:43 17.3 12.6 74 1017.9 6.9 S 9.2 0.0 0.8
20:44 17.3 12.6 74 1017.9 6.0 S 9.2 0.0 0.8
20:45 17.3 12.6 74 1017.9 7.6 S 9.2 0.0 0.8
20:46 17.3 12.6 74 1017.9 6.0 SW 9.2 0.0 0.8
20:47 17.2 12.5 74 1017.9 5.4 S 9.2 0.0 0.8
20:48 17.2 12.5 74 1017.9 5.4 S 9.2 0.0 0.8
20:49 17.2 12.5 74 1017.8 7.6 SW 9.2 0.0 0.8
20:50 17.2 12.5 74 1017.8 6.0 SSW 8.3 0.0 0.8
20:51 17.2 12.5 74 1017.8 6.9 SSW 8.3 0.0 0.8
20:52 17.2 12.5 74 1017.8 5.4 S 8.3 0.0 0.8
20:53 17.1 12.4 74 1017.8 6.0 SW 8.3 0.0 0.8
20:55 17.1 12.4 74 1017.7 6.0 SW 7.6 0.0 0.8
20:56 17.1 12.4 74 1017.9 6.9 SW 7.6 0.0 0.8
20:57 17.0 12.3 74 1017.8 4.5 SW 7.6 0.0 0.8
20:58 17.0 12.3 74 1017.9 6.9 S 7.6 0.0 0.8
20:59 17.0 12.3 74 1017.9 6.9 SW 6.9 0.0 0.8
21:00 16.9 12.2 74 1017.9 5.4 SW 6.9 0.0 0.8
21:01 16.9 12.2 74 1017.9 5.4 SW 6.9 0.0 0.8
21:02 16.9 12.2 74 1017.8 6.0 S 6.9 0.0 0.8
21:03 16.8 12.1 74 1017.8 7.6 S 7.6 0.0 0.8
21:04 16.8 12.1 74 1017.9 5.4 S 7.6 0.0 0.8
21:05 16.8 12.1 74 1018.0 3.8 SSW 7.6 0.0 0.8
21:06 16.7 12.1 74 1017.9 3.8 S 7.6 0.0 0.8
21:07 16.7 12.1 74 1017.9 3.8 S 7.6 0.0 0.8
21:08 16.7 12.1 74 1017.8 4.5 S 7.6 0.0 0.8
21:09 16.6 12.0 74 1017.8 3.1 SW 7.6 0.0 0.8
21:10 16.6 12.0 74 1017.8 4.5 S 7.6 0.0 0.8
21:11 16.6 12.0 74 1017.8 4.5 S 7.6 0.0 0.8
21:12 16.6 12.0 74 1017.9 4.5 SW 7.6 0.0 0.8
21:13 16.5 11.9 74 1017.8 3.8 WSW 7.6 0.0 0.8
21:14 16.5 11.9 74 1018.0 3.1 S 5.4 0.0 0.8
21:15 16.4 11.8 74 1018.0 3.1 S 4.5 0.0 0.8
21:16 16.4 11.8 74 1017.9 3.1 SW 4.5 0.0 0.8
21:17 16.3 11.7 74 1017.9 3.1 S 4.5 0.0 0.8
21:19 16.3 11.7 74 1017.9 3.1 S 4.5 0.0 0.8
21:20 16.3 11.7 74 1017.9 2.2 S 4.5 0.0 0.8
21:21 16.2 11.6 74 1018.0 3.1 S 4.5 0.0 0.8
21:22 16.2 11.6 74 1017.9 3.1 S 3.8 0.0 0.8
21:23 16.1 11.7 75 1018.0 2.2 S 3.1 0.0 0.8
21:24 16.1 11.7 75 1017.8 2.2 SW 3.1 0.0 0.8
21:25 16.1 11.7 75 1018.1 2.2 S 3.1 0.0 0.8
21:26 16.0 11.6 75 1018.1 1.6 S 3.1 0.0 0.8
21:27 16.0 11.6 75 1018.1 2.2 S 3.1 0.0 0.8
21:28 16.0 11.6 75 1018.1 2.2 SE 3.1 0.0 0.8
21:29 16.0 11.6 75 1018.0 2.2 S 3.1 0.0 0.8
21:30 16.0 11.6 75 1018.0 1.6 SSE 3.1 0.0 0.8
21:31 15.9 11.5 75 1018.0 2.2 S 3.1 0.0 0.8
21:32 15.9 11.5 75 1017.9 2.2 SE 3.1 0.0 0.8
21:33 15.9 11.5 75 1018.2 2.2 SE 3.1 0.0 0.8
21:34 15.9 11.5 75 1018.0 2.2 SE 2.2 0.0 0.8
21:35 15.9 11.5 75 1017.9 2.2 SE 2.2 0.0 0.8
21:36 15.8 11.6 76 1018.2 2.2 SE 2.2 0.0 0.8
21:38 15.8 11.6 76 1018.1 2.2 SE 2.2 0.0 0.8
21:39 15.8 11.6 76 1018.1 1.6 S 2.2 0.0 0.8
21:40 15.8 11.6 76 1018.2 2.2 S 2.2 0.0 0.8
21:41 15.7 11.5 76 1018.1 2.2 SSE 2.2 0.0 0.8
21:42 15.7 11.5 76 1018.0 1.6 S 2.2 0.0 0.8
21:43 15.7 11.5 76 1017.8 1.6 SE 2.2 0.0 0.8
21:44 15.7 11.5 76 1018.1 1.6 S 2.2 0.0 0.8
21:45 15.7 11.5 76 1018.1 1.6 S 2.2 0.0 0.8
21:46 15.7 11.5 76 1018.0 1.6 S 2.2 0.0 0.8
21:47 15.6 11.4 76 1018.0 1.6 SE 2.2 0.0 0.8
21:48 15.6 11.6 77 1018.1 1.6 SE 2.2 0.0 0.8
21:49 15.6 11.6 77 1018.1 1.6 SE 2.2 0.0 0.8
21:50 15.6 11.6 77 1018.1 1.6 S 2.2 0.0 0.8
21:51 15.6 11.6 77 1018.1 1.6 S 2.2 0.0 0.8
21:52 15.6 11.6 77 1018.2 1.6 SE 2.2 0.0 0.8
21:53 15.6 11.6 77 1018.1 2.2 S 2.2 0.0 0.8
21:54 15.6 11.6 77 1018.2 2.2 SW 2.2 0.0 0.8
21:55 15.6 11.6 77 1018.1 2.2 S 2.2 0.0 0.8
21:57 15.5 11.5 77 1018.3 1.6 W 2.2 0.0 0.8
21:58 15.5 11.5 77 1018.2 2.2 SE 2.2 0.0 0.8
21:59 15.5 11.5 77 1018.2 2.2 S 2.2 0.0 0.8
22:00 15.5 11.5 77 1018.3 2.2 S 2.2 0.0 0.8
22:01 15.5 11.5 77 1018.3 2.2 S 2.2 0.0 0.8
22:02 15.5 11.7 78 1018.3 2.2 S 3.1 0.0 0.8
22:03 15.5 11.7 78 1018.3 2.2 S 3.1 0.0 0.8
22:04 15.5 11.7 78 1018.2 1.6 SW 3.1 0.0 0.8
22:05 15.5 11.7 78 1018.1 2.2 S 3.1 0.0 0.8
22:06 15.5 11.7 78 1018.3 2.2 S 3.1 0.0 0.8
22:07 15.5 11.7 78 1018.3 1.6 W 3.1 0.0 0.8
22:08 15.5 11.7 78 1018.4 3.1 S 3.1 0.0 0.8
22:09 15.5 11.7 78 1018.3 2.2 S 3.1 0.0 0.8
22:10 15.5 11.9 79 1018.3 2.2 S 3.1 0.0 0.8
22:11 15.5 11.9 79 1018.3 2.2 S 3.1 0.0 0.8
22:12 15.4 11.8 79 1018.3 2.2 S 3.1 0.0 0.8
22:13 15.4 11.8 79 1018.1 2.2 S 3.1 0.0 0.8
22:14 15.4 11.8 79 1018.2 2.2 S 3.1 0.0 0.8
22:15 15.4 11.8 79 1018.2 2.2 S 3.1 0.0 0.8
22:17 15.4 11.8 79 1018.3 2.2 SW 3.1 0.0 0.8
22:18 15.4 11.8 79 1018.1 2.2 S 3.1 0.0 0.8
22:19 15.4 11.8 79 1018.1 3.1 SW 3.1 0.0 0.8
22:20 15.4 12.0 80 1018.3 2.2 SW 3.1 0.0 0.8
22:21 15.4 12.0 80 1018.4 3.1 WSW 3.1 0.0 0.8
22:22 15.5 12.1 80 1018.4 3.1 S 3.1 0.0 0.8
22:23 15.5 12.1 80 1018.2 2.2 S 3.1 0.0 0.8
22:24 15.5 12.1 80 1018.3 1.6 SE 3.1 0.0 0.8
22:25 15.5 12.1 80 1018.3 2.2 S 3.1 0.0 0.8
22:26 15.5 12.1 80 1018.3 2.2 S 3.1 0.0 0.8
22:27 15.5 12.1 80 1018.3 2.2 S 3.1 0.0 0.8
22:28 15.5 12.1 80 1018.3 2.2 S 3.1 0.0 0.8
22:29 15.5 12.1 80 1018.2 2.2 S 3.1 0.0 0.8
22:30 15.5 12.1 80 1018.5 1.6 S 3.1 0.0 0.8
22:31 15.5 12.1 80 1018.4 2.2 SW 3.1 0.0 0.8
22:32 15.5 12.1 80 1018.4 2.2 SW 3.1 0.0 0.8
22:33 15.5 12.3 81 1018.3 2.2 SW 3.1 0.0 0.8
22:34 15.5 12.3 81 1018.1 2.2 S 3.1 0.0 0.8
22:35 15.5 12.3 81 1018.3 2.2 SW 3.1 0.0 0.8
22:36 15.5 12.3 81 1018.3 2.2 S 3.1 0.0 0.8
22:37 15.5 12.3 81 1018.3 2.2 S 3.1 0.0 0.8
22:38 15.5 12.3 81 1018.3 3.1 SW 3.1 0.0 0.8
22:39 15.5 12.3 81 1018.3 3.8 SE 3.8 0.0 0.8
22:40 15.5 12.3 81 1018.2 2.2 S 3.8 0.0 0.8
22:41 15.6 12.4 81 1018.2 3.8 S 3.8 0.0 0.8
22:42 15.5 12.3 81 1018.3 3.8 S 3.8 0.0 0.8
22:44 15.6 12.4 81 1018.0 3.1 S 3.8 0.0 0.8
22:45 15.6 12.4 81 1018.2 3.8 SW 3.8 0.0 0.8
22:46 15.7 12.5 81 1018.2 3.8 SW 3.8 0.0 0.8
22:47 15.6 12.4 81 1018.0 4.5 NW 4.5 0.0 0.8
22:48 15.6 12.5 82 1018.2 3.1 S 4.5 0.0 0.8
22:49 15.6 12.5 82 1017.9 3.8 S 4.5 0.0 0.8
22:50 15.6 12.5 82 1018.3 2.2 SW 4.5 0.0 0.8
22:51 15.7 12.6 82 1018.2 4.5 SW 4.5 0.0 0.8
22:52 15.7 12.6 82 1018.1 5.4 S 5.4 0.0 0.8
22:53 15.7 12.6 82 1018.2 3.8 S 5.4 0.0 0.8
22:54 15.7 12.6 82 1018.2 3.8 S 5.4 0.0 0.8
22:55 15.7 12.6 82 1018.3 4.5 S 5.4 0.0 0.8
22:56 15.7 12.6 82 1018.3 3.8 SW 5.4 0.0 0.8
22:57 15.7 12.6 82 1018.4 4.5 S 5.4 0.0 0.8
22:58 15.7 12.6 82 1018.3 3.8 S 5.4 0.0 0.8
22:59 15.7 12.6 82 1018.3 3.8 SE 5.4 0.0 0.8
23:00 15.7 12.6 82 1018.3 3.8 SW 5.4 0.0 0.8
23:01 15.7 12.6 82 1018.2 3.1 S 5.4 0.0 0.8
23:02 15.7 12.6 82 1018.3 3.1 S 5.4 0.0 0.8
23:03 15.7 12.6 82 1018.2 3.1 S 4.5 0.0 0.8
23:04 15.7 12.6 82 1018.3 3.1 S 4.5 0.0 0.8
23:05 15.7 12.6 82 1018.2 3.1 S 4.5 0.0 0.8
23:06 15.8 12.9 83 1018.1 3.1 S 4.5 0.0 0.8
23:07 15.8 12.9 83 1018.3 3.1 SE 4.5 0.0 0.8
23:08 15.8 12.9 83 1018.3 4.5 S 4.5 0.0 0.8
23:09 15.8 12.9 83 1018.3 4.5 SW 4.5 0.0 0.8
23:10 15.8 12.9 83 1018.2 3.8 SW 4.5 0.0 0.8
23:11 15.8 12.9 83 1018.3 3.8 S 4.5 0.0 0.8
23:12 15.8 12.9 83 1018.2 3.1 SSW 4.5 0.0 0.8
23:13 15.8 12.9 83 1018.2 3.8 S 4.5 0.0 0.8
23:14 15.8 12.9 83 1018.4 3.8 SW 4.5 0.0 0.8
23:15 15.8 12.9 83 1018.1 4.5 S 4.5 0.0 0.8
23:16 15.8 12.9 83 1018.3 4.5 S 4.5 0.0 0.8
23:17 15.8 12.9 83 1018.3 3.8 S 5.4 0.0 0.8
23:18 15.8 12.9 83 1018.3 3.8 S 5.4 0.0 0.8
23:20 15.8 12.9 83 1018.3 4.5 SW 5.4 0.0 0.8
23:21 15.8 12.9 83 1018.3 5.4 S 5.4 0.0 0.8
23:22 15.8 12.9 83 1018.3 4.5 SSW 5.4 0.0 0.8
23:23 15.8 12.9 83 1018.2 5.4 S 5.4 0.0 0.8
23:24 15.8 12.9 83 1018.2 4.5 S 5.4 0.0 0.8
23:25 15.8 13.1 84 1018.3 6.9 S 6.9 0.0 0.8
23:26 15.8 13.1 84 1018.3 5.4 SW 6.9 0.0 0.8
23:27 15.8 13.1 84 1018.3 5.4 S 6.9 0.0 0.8
23:28 15.8 13.1 84 1018.3 4.5 S 6.9 0.0 0.8
23:29 15.8 13.1 84 1018.3 3.8 S 6.9 0.0 0.8
23:30 15.8 13.1 84 1018.3 3.8 SW 6.9 0.0 0.8
23:31 15.8 13.1 84 1018.3 4.5 S 6.9 0.0 0.8
23:32 15.8 13.1 84 1018.3 4.5 S 6.9 0.0 0.8
23:33 15.9 13.2 84 1018.2 5.4 SSW 6.9 0.0 0.8
23:34 15.9 13.2 84 1018.3 4.5 S 6.9 0.0 0.8
23:35 15.9 13.2 84 1018.2 4.5 S 6.9 0.0 0.8
23:36 15.8 13.1 84 1018.2 3.8 SW 6.0 0.0 0.8
23:37 15.8 13.1 84 1018.3 3.8 WSW 5.4 0.0 0.8
23:38 15.8 13.1 84 1018.2 3.8 S 5.4 0.0 0.8
23:39 15.9 13.2 84 1018.3 4.5 SW 5.4 0.0 0.8
23:40 15.9 13.2 84 1018.3 3.8 S 5.4 0.0 0.8
23:41 15.9 13.2 84 1018.4 4.5 S 5.4 0.0 0.8
23:42 15.9 13.2 84 1018.4 5.4 WSW 5.4 0.0 0.8
23:43 15.9 13.2 84 1018.4 5.4 S 5.4 0.0 0.8
23:44 15.9 13.2 84 1018.3 5.4 S 5.4 0.0 0.8
23:45 15.9 13.2 84 1018.4 5.4 SW 5.4 0.0 0.8
23:46 15.9 13.2 84 1018.4 5.4 SW 5.4 0.0 0.8
23:47 15.8 13.1 84 1018.3 3.8 S 5.4 0.0 0.8
23:48 15.8 13.1 84 1018.4 4.5 S 5.4 0.0 0.8
23:49 15.8 13.1 84 1018.3 3.1 S 5.4 0.0 0.8
23:50 15.8 13.1 84 1018.4 3.8 SW 5.4 0.0 0.8
23:51 15.8 13.1 84 1018.4 3.8 S 5.4 0.0 0.8
23:52 15.8 13.1 84 1018.3 3.1 W 5.4 0.0 0.8
23:53 15.8 13.1 84 1018.5 3.1 S 5.4 0.0 0.8
23:54 15.8 13.1 84 1018.3 3.1 S 5.4 0.0 0.8
23:55 15.8 13.1 84 1018.3 3.8 SSW 5.4 0.0 0.8
23:56 15.8 13.1 84 1018.3 3.8 S 5.4 0.0 0.8
23:57 15.8 13.1 84 1018.3 3.1 S 5.4 0.0 0.8
23:58 15.8 13.1 84 1018.3 3.1 SW 3.8 0.0 0.8
23:59 15.8 13.1 84 1018.4 3.1 SW 3.8 0.0 0.8

UK - WEATHER STATION TOPSITES - UK World Weather Websites

This is a private weather station, never base important decisions or events on data from this weather station. Although every effort has been made to make the data as accurate as possible it does not meet MetOffice standards. It is proved as a guide of local weather conditions. We accept no liability for any loss which may arise from use of the data.

Copyright © Carnkie Weather 2009 - 2018.